                ,  0.301,  0.397,  0.494,  0.590,  0.687,  0.784,  0.880,  0.977,  1.073,  1.170,  1.267,  1.363,  1.460,  1.556,  1.653,  1.749,  1.846,  1.943,  2.039,  2.136,  2.232,  2.329,  2.426,  2.522,  2.619,  2.715,  2.812,  2.909,  3.005,  3.102,  3.198,  3.295,  3.392,  3.488,  3.585,  3.681,  3.778,  3.875,  3.971,  4.068,  4.164,  4.261,  4.357,  4.454,  4.551,  4.647,  4.744,  4.840,  4.937,  5.034,  5.130,  5.227,  5.323,  5.420,  5.517,  5.613,  5.710,  5.806,  5.903,  6.000,  6.096,  6.193,  6.289,  6.386,  6.483,  6.579,  6.676,  6.772,  6.869,  6.965,  7.062,  7.159,  7.255,  7.352,  7.448,  7.545,  7.642,  7.738,  7.835,  7.931
2015/02/23 00:00,  999.0,  999.0,   -0.0,    0.0,    0.1,    0.2,   -0.0,    0.1,  999.0,   -0.2,  999.0,   -0.1,   -0.1,    0.1,    0.2,    0.0,   -0.1,   -0.0,    0.0,   -0.1,    0.1,    0.0,    0.1,   -0.0,   -0.1,   -0.2,   -0.3,   -0.2,   -0.0,   -0.1,    0.1,   -0.1,    0.1,    0.0,   -0.1,   -0.0,   -0.1,   -0.1,    0.2,    0.0,    0.1,    0.1,   -0.1,   -0.1,   -0.0,    0.0,   -0.0,   -0.0,   -0.0,   -0.1,   -0.0,    0.1,    0.1,    0.1,   -0.0,   -0.0,    0.1,   -0.1,   -0.1,   -0.1,    0.1,   -0.2,    0.1,    0.1,    0.1,   -0.0,   -0.1,   -0.1,   -0.0,   -0.2,   -0.2,   -0.1,   -0.1,  999.0,   -0.2,    0.2,  999.0,  999.0,  999.0,  999.0
2015/02/23 00:10,  999.0,  999.0,    0.1,    0.0,    0.0,    0.1,    0.1,  999.0,   -0.1,   -0.0,   -0.0,   -0.1,   -0.1,    0.0,   -0.2,    0.1,    0.1,  999.0,  999.0,  999.0,  999.0,  999.0,    2.3,    1.9,    2.1,    2.3,   -0.1,    1.4,   -0.3,    0.0,    0.1,    0.0,   -0.1,    0.0,   -0.1,   -0.2,   -0.1,    0.2,    0.0,    0.1,   -0.0,   -0.1,   -0.0,    0.1,   -0.1,   -0.1,    0.1,    0.0,    0.1,   -0.1,    0.0,    0.1,    0.1,   -0.0,    0.1,   -0.1,    0.0,    0.1,   -0.1,   -0.0,   -0.0,   -0.1,    0.2,    0.1,   -0.0,   -0.1,    0.2,    0.1,   -0.1,    0.1,  999.0,  999.0,  999.0,  999.0,   -0.1,   -0.2,  999.0,  999.0,  999.0,  999.0
2015/02/23 00:20,  999.0,  999.0,  999.0,    0.1,    0.0,  999.0,  999.0,  999.0,  999.0,  999.0,    9.5,   14.8,    9.0,    8.9,   10.5,  999.0,  999.0,  999.0,  999.0,   13.6,   13.8,   12.0,   10.2,   11.5,   16.2,   17.3,   17.5,   16.8,   18.7,  999.0,  999.0,  999.0,  999.0,  999.0,  999.0,  999.0,  999.0,  999.0,  999.0,  999.0,   -0.1,   -0.2,   -0.1,   -0.1,    0.1,  999.0,  999.0,  999.0,  999.0,   -0.1,   -0.2,   -0.0,   -0.0,    0.1,  999.0,    0.0,  999.0,    0.0,  999.0,  999.0,    0.1,   -0.1,    0.1,    0.1,    0.0,  999.0,  999.0,  999.0,  999.0,  999.0,  999.0,   -0.0,  999.0,  999.0,    0.1,  999.0,  999.0,  999.0,  999.0,  999.0
2015/02/23 00:30,  999.0,  999.0,  999.0,    8.0,  999.0,   -0.1,   -0.0,  999.0,  999.0,    7.8,   10.2,    7.9,   13.7,   20.3,   13.7,   16.6,  999.0,  999.0,  999.0,  999.0,  999.0,  999.0,   21.8,   23.1,   23.9,   24.1,   23.4,   23.9,   24.1,   25.2,   23.3,   22.7,   25.6,   26.6,   26.1,  999.0,  999.0,  999.0,  999.0,  999.0,  999.0,   -0.0,  999.0,    0.1,    0.2,   -0.1,   -0.0,   -0.1,    0.1,    0.0,    0.0,   -0.0,   -0.0,   -0.2,    0.2,   -0.0,   -0.0,   -0.1,   -0.1,   -0.0,   -0.1,   -0.1,   -0.1,   -0.1,   -0.1,   -0.0,    0.1,   -0.1,  999.0,   -0.1,  999.0,  999.0,  999.0,  999.0,  999.0,  999.0,  999.0,  999.0,  999.0,  999.0
2015/02/23 00:40,  999.0,  999.0,  999.0,  999.0,  999.0,  999.0,  999.0,  999.0,  999.0,  999.0,   -0.8,   -1.6,   -8.4,    6.4,  999.0,  999.0,  999.0,  999.0,  999.0,  999.0,  999.0,  999.0,  999.0,  999.0,  999.0,  999.0,  999.0,  999.0,  999.0,  999.0,  999.0,  999.0,  999.0,  999.0,  999.0,  999.0,  999.0,   21.5,   22.7,   24.9,   25.0,  999.0,  999.0,  999.0,  999.0,  999.0,  999.0,  999.0,  999.0,    0.2,   -0.2,    0.2,   -0.1,   -0.2,  999.0,   -0.1,    0.6,    0.1,   -0.1,    0.3,    0.2,   -0.0,   -0.2,    0.0,  999.0,  999.0,  999.0,    0.0,   -0.2,   -0.0,  999.0,  999.0,  999.0,  999.0,  999.0,  999.0,  999.0,  999.0,  999.0,  999.0
2015/02/23 00:50,  999.0,  999.0,  999.0,   -0.0,   -6.3,    0.0,   -4.2,   -4.6,   -5.9,   -7.3,   -2.4,   -3.4,   -5.5,   -2.8,   -0.0,    9.1,  999.0,  999.0,  999.0,  999.0,  999.0,   25.9,   23.9,   22.7,   22.4,   23.0,   23.3,   24.2,   24.3,   25.2,   24.8,   24.6,   25.3,   25.1,   24.8,   23.5,   23.5,   23.3,  999.0,  999.0,  999.0,  999.0,  999.0,  999.0,  999.0,  999.0,  999.0,   -0.1,    0.3,    0.3,    0.1,    0.0,   -0.0,    0.0,   -0.0,    0.1,    0.0,   -0.1,   -0.1,   -0.0,    0.1,    0.0,   -0.0,   -0.1,   -0.0,    0.0,    0.1,    0.1,   -0.1,    0.2,   -0.1,   -0.7,  999.0,   -0.3,   -0.0,   -0.0,    0.0,  999.0,  999.0,  999.0
2015/02/23 01:00,  999.0,  999.0,  999.0,   -0.0,    0.2,  999.0,    0.1,  999.0,  999.0,   16.1,    9.0,    6.7,    5.5,    4.1,   19.6,   20.6,  999.0,  999.0,  999.0,  999.0,  999.0,   26.2,   24.1,   23.9,   23.8,   24.6,   20.9,   21.6,   23.2,   22.2,  999.0,  999.0,  999.0,  999.0,  999.0,  999.0,  999.0,  999.0,  999.0,  999.0,    9.9,   20.4,   16.6,   16.9,   15.9,  999.0,  999.0,  999.0,  999.0,    0.1,   -0.1,   -0.1,   -0.1,    0.2,   -0.0,   -0.0,    0.1,    0.0,   -0.1,   -0.0,    0.3,    0.1,    0.1,   -0.0,    0.2,    0.1,  999.0,  999.0,    0.3,  999.0,  999.0,  999.0,  999.0,   -0.1,  999.0,  999.0,  999.0,  999.0,  999.0,  999.0
2015/02/23 01:10,  999.0,  999.0,   -9.5,  -16.8,  999.0,  999.0,  999.0,  999.0,  999.0,   -5.5,    1.8,    2.3,    6.0,    5.1,    2.4,   -2.5,  999.0,  999.0,  999.0,  999.0,  999.0,   17.5,   20.5,   20.4,   20.8,   21.1,   21.3,   19.3,   22.5,   22.8,   22.6,   22.0,   19.6,   19.9,   20.9,   21.9,   23.5,   21.7,   23.3,   24.0,   27.0,   20.0,  999.0,  999.0,  999.0,   -0.2,   -0.1,    0.1,    0.2,    0.1,    0.2,    0.0,   -0.2,   -0.2,   -0.0,    0.1,    0.1,    0.1,    0.2,    0.1,    0.1,   -0.0,    0.3,    0.2,   -0.2,   -0.1,   -0.1,    0.3,  999.0,    0.1,   -0.3,  999.0,    0.0,  999.0,   -0.1,  999.0,  999.0,  999.0,  999.0,  999.0
2015/02/23 01:20,  999.0,  999.0,   -0.2,   -0.1,    0.0,   -0.1,   -0.3,  999.0,  999.0,    0.2,    5.6,    4.7,    6.6,    6.8,    6.3,    3.8,   -0.0,  999.0,   -0.0,   -0.0,    0.1,    1.2,    1.2,    1.2,    0.2,    0.1,    0.2,    0.2,    0.0,    0.1,   -0.0,    0.1,   -0.0,   -0.1,   -0.2,   -0.2,   -0.0,   -0.1,    0.2,   -0.0,   -0.1,   -0.2,   -0.1,    0.0,    0.1,    0.0,    0.0,   -0.0,    0.1,   -0.0,   -0.1,    0.0,    0.2,    0.2,    0.1,   -0.0,    0.2,    0.1,    0.2,   -0.0,    0.1,    0.0,    0.0,    0.1,    0.1,    0.1,    0.0,   -0.3,   -0.2,   -0.2,  999.0,   -0.1,  999.0,    0.0,  999.0,  999.0,  999.0,  999.0,  999.0,  999.0
2015/02/23 01:30,  999.0,  999.0,  999.0,   -0.1,  999.0,  999.0,  999.0,  999.0,  999.0,  999.0,   13.8,    4.3,    3.4,    3.2,    3.3,    0.1,    7.8,  999.0,   -0.1,  999.0,  999.0,  999.0,  999.0,  999.0,   12.2,   12.8,  999.0,   13.4,   14.3,    8.2,    7.7,  999.0,  999.0,    8.7,  999.0,   -0.2,    0.0,   -0.1,    0.0,   -0.2,   -0.1,    0.3,    0.2,    0.3,    0.0,    0.0,    0.3,    0.1,   -0.0,    0.0,    0.0,   -0.0,   -0.2,   -0.1,    0.0,   -0.0,   -0.2,   -0.1,    0.2,   -0.1,    0.2,    0.1,   -0.1,   -0.1,    0.1,    0.2,    0.2,    0.0,    0.1,  999.0,  999.0,  999.0,   -0.1,    0.2,    0.0,   -0.4,  999.0,  999.0,  999.0,  999.0
2015/02/23 01:40,  999.0,  999.0,    0.1,   -0.1,    0.1,   -0.1,  999.0,  999.0,  999.0,    0.0,   -0.0,    0.1,   -0.0,    0.0,    0.1,    0.0,    0.2,    0.2,  999.0,   -0.0,    0.1,    0.2,    0.3,   -0.1,   -0.3,   -0.1,   -0.3,   -0.1,    0.1,   -0.1,   -0.1,   -0.0,    0.0,   -0.0,    0.1,   -0.1,    0.0,    0.1,    0.1,   -0.1,   -0.2,   -0.1,    0.1,    0.1,    0.1,   -0.0,   -0.0,    0.1,    0.0,    0.2,    0.1,   -0.1,    0.3,    0.2,    0.0,    0.1,   -0.1,   -0.1,   -0.0,    0.0,    0.0,   -0.0,    0.2,    0.0,    0.1,   -0.0,    0.1,    0.2,    0.3,  999.0,  999.0,  999.0,    0.4,    0.4,   -0.0,  999.0,  999.0,  999.0,  999.0,  999.0
2015/02/23 01:50,  999.0,  999.0,   -0.3,  999.0,  999.0,    0.0,  999.0,  999.0,  999.0,   -0.0,    0.0,    0.0,   -0.1,   -0.1,   -0.2,   -0.2,   -0.1,   -0.0,   -0.1,   -0.1,   -0.1,   -0.1,   -0.1,    0.0,    0.0,   -0.0,    0.0,   -0.0,    0.0,   -0.0,   -0.0,    0.0,   -0.0,   -0.1,    0.0,   -0.2,   -0.2,    0.1,    0.2,    0.1,   -0.0,    0.4,    0.5,    0.1,   -0.0,    0.0,   -0.0,    0.0,    0.2,   -0.0,   -0.0,   -0.0,    0.2,    0.0,    0.2,    0.0,   -0.1,    0.0,   -0.1,   -0.0,    0.2,   -0.0,   -0.1,   -0.0,    0.1,    0.0,  999.0,   -0.0,    0.2,  999.0,  999.0,  999.0,  999.0,  999.0,    0.0,  999.0,  999.0,  999.0,  999.0,  999.0
2015/02/23 02:00,  999.0,  999.0,  999.0,  999.0,   -0.0,   -0.2,  999.0,  999.0,  999.0,   -0.0,    0.1,    0.3,   -0.1,    0.0,    0.1,    0.0,   -0.0,    0.0,   -0.0,    0.1,    0.1,    0.1,    0.2,    0.3,    0.1,    0.2,    0.0,    0.2,   -0.0,    0.0,   -0.0,    0.0,   -0.1,    0.2,   -0.2,    0.3,    0.4,    0.0,    0.5,    0.2,   -0.1,   -0.1,    0.1,    0.2,    0.1,   -0.0,   -0.2,    0.3,    0.3,    0.4,    0.5,    0.1,   -0.1,    0.2,    0.1,    0.0,   -0.1,   -0.1,    0.2,   -0.2,    0.1,    0.0,    0.0,    0.0,    0.0,    0.2,   -0.1,    0.4,   -0.3,  999.0,  999.0,  999.0,  999.0,    0.2,  999.0,  999.0,  999.0,  999.0,  999.0,  999.0
2015/02/23 02:10,  999.0,  999.0,    0.1,   -0.2,    0.2,    0.3,   -0.1,  999.0,  999.0,    0.0,    0.0,   -0.1,   -0.1,   -0.0,    0.1,    0.1,    0.1,    0.0,   -0.0,   -0.0,    0.1,    0.3,    0.1,    0.1,    0.0,    0.1,    0.1,    0.1,    0.0,    0.1,    0.2,   -0.1,   -0.2,    0.1,   -0.0,   -0.5,    0.1,   -0.2,   -0.2,   -0.1,   -0.1,    0.2,    0.1,   -0.1,    0.1,    0.2,    0.2,    0.4,    0.4,   -0.1,    0.0,    0.0,   -0.0,    0.1,   -0.2,   -0.2,    0.2,    0.2,    0.2,    0.1,    0.2,   -0.2,   -0.3,   -0.1,   -0.1,   -0.2,   -0.3,   -0.4,  999.0,  999.0,  999.0,  999.0,  999.0,  999.0,  999.0,  999.0,  999.0,  999.0,  999.0,  999.0
2015/02/23 02:20,  999.0,  999.0,   -0.1,   -0.1,  999.0,    0.1,  999.0,  999.0,  999.0,   -0.1,    0.0,   -0.0,   -0.0,    0.0,    0.1,    0.1,    0.0,    0.0,   -0.0,    0.0,    0.1,    0.0,    0.1,    0.1,    0.1,    0.1,    0.1,    0.0,    0.1,    0.1,    0.2,   -0.0,    0.0,   -0.0,    0.1,    0.2,    0.6,    0.2,    0.1,    0.1,   -0.0,    0.1,    0.3,    0.1,    0.3,    0.5,    0.1,    0.1,    0.4,    1.2,    0.7,    1.0,    0.6,    0.5,    0.5,    0.1,    0.2,    0.1,   -0.1,    0.1,   -0.1,   -0.3,    0.0,    0.0,   -0.2,   -0.0,  999.0,  999.0,  999.0,  999.0,  999.0,  999.0,  999.0,  999.0,  999.0,  999.0,  999.0,  999.0,  999.0,  999.0
2015/02/23 02:30,  999.0,  999.0,   -0.0,   -0.0,  999.0,  999.0,  999.0,  999.0,  999.0,    0.0,    0.1,    0.1,   -0.1,    0.1,    0.1,    0.0,   -0.0,   -0.0,   -0.0,    0.1,    0.0,    0.1,    0.1,    0.1,    0.0,    0.1,    0.1,    0.1,   -0.0,   -0.1,   -0.1,    0.1,    0.0,   -0.2,   -0.2,    0.2,    0.1,    0.5,    0.3,    0.1,    0.1,   -0.0,   -0.0,    0.1,    0.3,    0.9,    1.2,    1.0,    0.3,    0.3,    0.2,    0.7,    1.3,    0.7,    0.1,    0.1,   -0.1,    0.0,   -0.0,    0.2,    0.0,   -0.1,   -0.1,   -0.2,    0.1,    0.2,  999.0,  999.0,  999.0,  999.0,  999.0,  999.0,  999.0,    0.1,  999.0,  999.0,  999.0,  999.0,  999.0,  999.0
2015/02/23 02:40,  999.0,  999.0,   -0.1,   -0.5,   -0.1,  999.0,  999.0,  999.0,  999.0,   -0.1,   -0.1,   -0.1,   -0.1,   -0.0,    0.0,   -0.0,   -0.0,   -0.0,   -0.0,   -0.0,    0.1,   -0.1,    0.0,   -0.2,   -0.2,   -0.2,   -0.4,   -0.1,   -0.2,   -0.1,   -0.1,    0.1,    0.3,    0.1,   -0.1,    0.1,   -0.2,    0.2,    0.0,    0.1,   -0.0,    0.1,    0.1,    0.2,    0.1,    0.1,    0.2,    0.3,    0.5,    0.3,    0.1,    0.3,    0.3,   -0.1,    0.1,    0.0,    0.0,    0.1,    0.1,    0.1,   -0.2,   -0.1,    0.0,    0.2,   -0.1,   -0.0,  999.0,  999.0,  999.0,  999.0,  999.0,  999.0,  999.0,  999.0,  999.0,  999.0,  999.0,  999.0,  999.0,  999.0
2015/02/23 02:50,  999.0,  999.0,   -0.1,   -0.3,   -0.2,  999.0,  999.0,  999.0,  999.0,    0.1,   -0.0,   -0.1,   -0.0,   -0.0,    0.0,    0.1,   -0.1,   -0.1,   -0.1,   -0.0,   -0.0,   -0.1,   -0.1,   -0.1,   -0.1,    0.1,   -0.0,   -0.0,   -0.0,    0.2,   -0.1,    0.0,   -0.1,    0.1,   -0.1,   -0.0,    0.3,    0.2,    0.0,    0.1,   -0.0,   -0.0,   -0.1,   -0.0,   -0.0,    0.0,   -0.1,   -0.1,    0.0,   -0.0,    0.1,   -0.0,    0.0,    0.0,    0.1,   -0.2,    0.1,    0.0,    0.1,    0.0,    0.1,   -0.1,   -0.1,   -0.2,    0.0,    0.2,  999.0,  999.0,  999.0,  999.0,  999.0,  999.0,  999.0,  999.0,  999.0,  999.0,  999.0,  999.0,  999.0,  999.0
2015/02/23 03:00,  999.0,  999.0,   -0.1,   -0.2,   -0.2,  999.0,  999.0,  999.0,  999.0,   -0.1,   -0.1,    0.1,    0.1,    0.1,    0.1,    0.1,    0.1,    0.1,   -0.0,    0.2,    0.1,    0.2,    0.1,   -0.1,    0.1,   -0.0,    0.1,    0.1,    0.0,    0.1,   -0.2,    0.0,   -0.2,    0.0,   -0.2,   -0.1,    0.2,    0.1,    0.3,    0.2,    0.5,    0.1,    0.0,    0.2,    0.1,    0.2,    0.1,    0.1,   -0.1,  999.0,    0.2,    0.1,    0.2,    0.0,    0.1,    0.1,    0.1,   -0.0,   -0.2,   -0.3,    0.1,    0.1,    0.3,   -0.1,   -0.0,    0.1,  999.0,  999.0,  999.0,  999.0,  999.0,  999.0,  999.0,  999.0,  999.0,  999.0,  999.0,  999.0,  999.0,  999.0
2015/02/23 03:10,  999.0,  999.0,   -0.1,   -0.1,   -0.0,  999.0,   -0.2,  999.0,  999.0,   -0.0,    0.0,    0.1,    0.0,    0.1,    0.1,    0.0,    0.1,    0.0,    0.1,    0.1,   -0.0,   -0.0,   -0.1,    0.1,   -0.1,    0.0,    0.2,    0.0,   -0.2,    0.1,   -0.3,    0.2,   -0.0,    0.0,    0.1,    0.2,  999.0,   -0.1,   -0.4,   -0.4,    0.0,    0.2,    0.0,   -0.1,   -0.1,    0.1,    0.1,    0.1,    0.1,  999.0,    0.2,   -0.0,    0.3,   -0.0,    0.2,   -0.0,    0.2,    0.1,   -0.1,    0.1,   -0.1,   -0.0,    0.0,   -0.1,   -0.1,    0.2,    0.0,  999.0,  999.0,  999.0,  999.0,  999.0,  999.0,  999.0,  999.0,  999.0,  999.0,  999.0,  999.0,  999.0
2015/02/23 03:20,  999.0,  999.0,   -0.1,   -0.2,    0.0,    0.1,  999.0,  999.0,   -0.1,    0.1,    0.1,   -0.0,   -0.1,    0.0,    0.1,    0.1,    0.0,   -0.0,    0.0,   -0.0,   -0.0,   -0.1,   -0.0,    0.0,    0.1,    0.0,    0.0,   -0.1,   -0.0,    0.2,    0.0,    0.1,   -0.2,    0.1,   -0.2,   -0.1,   -0.1,    0.1,    0.1,   -0.2,   -0.1,  999.0,    0.1,    0.3,    0.2,    0.1,   -0.1,    0.1,    0.1,   -0.2,    0.7,    0.6,    0.4,    0.2,    0.4,    0.1,   -0.0,   -0.3,    0.0,    0.4,   -0.0,    0.3,   -0.7,   -0.3,   -0.1,   -0.0,  999.0,  999.0,  999.0,  999.0,  999.0,  999.0,  999.0,  999.0,  999.0,  999.0,  999.0,  999.0,  999.0,  999.0
2015/02/23 03:30,  999.0,  999.0,   -0.1,   -0.2,   -0.1,  999.0,  999.0,  999.0,  999.0,    0.1,   -0.0,    0.0,    0.0,    0.0,    0.1,   -0.0,    0.1,    0.0,   -0.0,   -0.0,   -0.0,   -0.0,   -0.1,   -0.2,    0.0,    0.1,   -0.1,   -0.0,   -0.2,    0.1,    0.1,   -0.0,    0.2,    0.1,    0.1,   -0.1,    0.3,    0.1,    0.1,    0.0,   -0.0,   -0.3,  999.0,   -0.0,    0.1,   -0.0,    0.1,    0.0,    0.3,    0.3,  999.0,  999.0,    0.8,    0.7,    0.1,    0.1,    0.0,  999.0,   -0.7,    0.0,    0.1,    0.2,   -0.0,    0.1,  999.0,  999.0,  999.0,  999.0,  999.0,  999.0,  999.0,  999.0,  999.0,  999.0,  999.0,  999.0,  999.0,  999.0,  999.0,  999.0
2015/02/23 03:40,  999.0,  999.0,   -0.0,    0.3,    0.1,    0.1,  999.0,  999.0,  999.0,   -0.1,   -0.0,    0.1,   -0.0,   -0.1,   -0.1,   -0.1,    0.1,    0.1,   -0.1,   -0.1,   -0.0,   -0.0,   -0.1,   -0.0,    0.0,   -0.1,   -0.1,    0.1,   -0.0,   -0.2,   -0.1,   -0.1,    0.1,    0.2,   -0.0,    0.1,    0.2,   -0.2,    0.1,   -0.0,   -0.2,    0.1,   -0.0,    0.0,    0.1,   -0.0,   -0.1,    0.0,    0.1,    0.1,  999.0,    0.3,    0.0,    0.5,    0.1,    0.3,    0.2,    0.1,   -0.1,   -0.2,   -0.2,    0.3,   -0.1,    0.2,    0.3,   -0.2,  999.0,  999.0,  999.0,  999.0,  999.0,  999.0,  999.0,  999.0,  999.0,  999.0,  999.0,  999.0,  999.0,  999.0
2015/02/23 03:50,  999.0,  999.0,   -0.0,    0.3,    0.1,  999.0,    0.1,  999.0,  999.0,   -0.4,   -0.1,   -0.1,   -0.1,   -0.2,    0.0,   -0.1,    0.1,    0.0,    0.0,    0.0,   -0.0,   -0.3,   -0.1,   -0.2,   -0.3,   -0.1,   -0.2,   -0.4,   -0.1,   -0.0,   -0.2,    0.1,   -0.3,    0.0,   -0.2,    0.1,    0.1,   -0.0,   -0.3,   -0.3,   -0.3,   -0.2,   -0.1,   -0.2,    0.1,    0.0,   -0.2,   -0.2,   -0.1,   -0.1,   -0.2,   -0.0,    0.0,   -0.1,    0.1,    0.0,    0.2,    0.5,    0.2,    0.1,   -0.2,   -0.0,    0.3,  999.0,   -0.1,   -0.0,    0.1,  999.0,  999.0,  999.0,  999.0,  999.0,  999.0,  999.0,  999.0,  999.0,  999.0,  999.0,  999.0,  999.0
2015/02/23 04:00,  999.0,  999.0,   -0.1,    0.1,    0.2,  999.0,  999.0,  999.0,  999.0,   -0.0,   -0.1,    0.0,   -0.0,    0.1,   -0.0,    0.0,    0.0,    0.0,   -0.0,   -0.1,   -0.1,   -0.5,   -0.4,   -0.6,   -0.6,   -0.1,   -0.4,   -0.3,   -0.1,    0.1,   -0.1,   -0.2,    0.0,   -0.3,    0.0,   -0.0,   -0.0,   -0.2,   -0.2,   -0.2,   -0.0,   -0.1,   -0.0,    0.1,    0.2,   -0.0,    0.1,   -0.1,   -0.1,   -0.1,   -0.0,   -0.3,    0.3,    0.1,    0.2,    0.3,    0.4,    0.1,    0.0,    0.2,   -0.1,    0.5,    0.0,   -0.1,   -0.1,    0.2,   -0.3,  999.0,  999.0,  999.0,  999.0,  999.0,  999.0,    0.2,  999.0,  999.0,  999.0,  999.0,  999.0,  999.0
2015/02/23 04:10,  999.0,  999.0,   -0.3,    0.2,    0.2,   -0.3,  999.0,  999.0,  999.0,   -0.0,   -0.2,   -0.0,   -0.0,   -0.1,    0.0,   -0.0,   -0.2,   -0.1,   -0.0,    0.1,   -0.0,    0.2,    0.6,    0.4,   -0.0,    1.3,   -0.8,   -0.6,   -0.3,   -0.1,    0.2,    0.0,    0.2,   -0.0,    0.0,   -0.1,   -0.1,   -0.1,    0.1,    0.2,   -0.2,   -0.1,   -0.1,   -0.2,   -0.1,    0.0,   -0.1,   -0.1,   -0.0,    0.2,   -0.1,    0.1,   -0.1,    0.1,    0.0,    0.2,    0.1,    0.1,    0.4,   -0.1,    0.2,    0.1,    0.6,   -0.1,    0.1,  999.0,  999.0,  999.0,  999.0,  999.0,  999.0,  999.0,  999.0,  999.0,  999.0,  999.0,  999.0,  999.0,  999.0,  999.0
2015/02/23 04:20,  999.0,  999.0,    0.0,    0.2,    0.5,    0.1,  999.0,  999.0,  999.0,    0.1,    0.1,    0.0,    0.0,    0.1,    0.1,    0.1,   -0.0,    0.0,    0.1,    0.1,    0.2,    0.2,    0.3,    0.6,    0.6,    1.5,    1.8,    0.3,    0.0,   -0.0,    0.2,    0.3,    0.1,   -0.1,   -0.1,   -0.2,    0.2,   -0.1,    0.0,    0.1,   -0.1,    0.1,    0.0,    0.2,    0.3,    0.3,    0.1,   -0.0,   -0.0,   -0.1,    0.0,   -0.0,   -0.0,    0.1,   -0.1,   -0.1,    0.1,    0.1,    0.3,    0.2,    0.2,   -0.1,  999.0,   -0.0,    0.4,  999.0,  999.0,  999.0,  999.0,  999.0,  999.0,  999.0,  999.0,    0.0,   -0.1,  999.0,  999.0,  999.0,  999.0,  999.0
2015/02/23 04:30,  999.0,   -0.0,    0.4,    0.4,    0.2,    0.4,  999.0,  999.0,    0.2,    0.1,   -0.0,    0.1,    0.2,    0.1,    0.2,    0.1,   -0.1,    0.1,    0.1,   -0.1,    0.0,    1.8,    0.4,    3.9,    3.4,    3.7,    4.8,    0.7,    1.9,    0.5,    0.3,    0.1,    0.3,   -0.1,    0.0,  999.0,    0.1,    0.0,  999.0,    0.3,    0.0,   -0.4,  999.0,   -0.1,    0.1,   -0.0,   -0.2,   -0.2,   -0.2,    0.1,    0.4,  999.0,    0.4,    0.2,    0.1,   -0.3,   -0.2,  999.0,    0.1,  999.0,  999.0,  999.0,   -0.4,    0.0,   -0.2,  999.0,  999.0,  999.0,  999.0,  999.0,  999.0,  999.0,  999.0,  999.0,  999.0,  999.0,  999.0,  999.0,  999.0,  999.0
2015/02/23 04:40,  999.0,   -0.0,    0.2,    0.7,    0.8,    0.4,    0.1,  999.0,  999.0,    0.1,   -0.1,   -0.1,   -0.1,    0.0,    0.0,    0.1,  999.0,  999.0,   10.2,    9.2,    7.9,    7.0,    7.7,    8.9,    9.8,    9.9,    9.8,  999.0,  999.0,  999.0,  999.0,  999.0,  999.0,   -0.2,   -1.0,  999.0,  999.0,  999.0,  999.0,   -0.2,    0.1,  999.0,  999.0,    0.1,    0.2,    0.1,    0.2,    0.4,  999.0,  999.0,   -0.4,  999.0,  999.0,    0.5,  999.0,  999.0,  999.0,   -0.1,  999.0,    0.1,  999.0,  999.0,  999.0,  999.0,  999.0,  999.0,  999.0,  999.0,  999.0,  999.0,  999.0,  999.0,  999.0,  999.0,  999.0,  999.0,  999.0,  999.0,  999.0,  999.0
2015/02/23 04:50,  999.0,    0.2,    0.2,    0.3,    0.1,    0.0,   -0.0,    0.0,    0.3,    0.2,    0.1,    0.1,    0.0,    0.3,    0.1,    0.1,  999.0,  999.0,  999.0,  999.0,  999.0,    8.7,    8.7,    8.8,    9.3,  999.0,    4.1,  999.0,    1.1,   -0.3,   -0.5,   -0.2,   -0.2,   -0.7,   -0.1,   -0.2,   -0.3,   -0.1,    0.0,   -0.1,    0.0,    0.1,    0.2,   -0.1,   -0.2,    0.1,   -0.0,    0.1,    0.1,   -0.1,   -0.2,    0.2,    0.1,   -0.1,    0.0,    0.2,    0.1,   -0.3,   -0.2,   -0.4,    0.1,   -0.2,    0.3,    0.0,   -0.1,  999.0,  999.0,  999.0,  999.0,  999.0,  999.0,  999.0,  999.0,  999.0,  999.0,  999.0,  999.0,  999.0,  999.0,  999.0
2015/02/23 05:00,  999.0,    0.1,    0.1,    0.3,    0.1,    0.3,    0.2,  999.0,  999.0,    0.3,    0.1,    0.1,    0.1,    0.0,   -0.1,   -0.1,   -0.2,  999.0,   -0.2,   -0.0,  999.0,   -0.4,   -0.6,   -0.5,   -1.4,   -0.2,   -1.6,   -1.5,   -0.3,   -0.8,   -0.3,   -0.3,   -0.1,   -0.2,   -0.2,   -0.4,   -0.6,   -0.6,    0.2,   -0.2,   -0.0,    0.0,  999.0,   -0.0,   -0.2,   -0.2,   -0.4,    0.0,   -0.2,   -0.2,    0.0,    0.2,    0.1,   -0.0,    0.1,  999.0,   -0.2,   -0.1,   -0.1,   -0.5,    0.2,   -0.2,   -0.1,   -0.1,   -0.4,  999.0,  999.0,  999.0,  999.0,  999.0,  999.0,  999.0,  999.0,  999.0,  999.0,  999.0,  999.0,  999.0,  999.0,  999.0
2015/02/23 05:10,  999.0,  999.0,    0.2,    0.2,    0.2,    0.1,  999.0,  999.0,  999.0,    0.0,    0.0,   -0.0,    0.1,    0.1,   -0.1,   -0.1,   -0.2,   -0.0,   -0.1,   -0.2,   -0.3,   -0.8,   -1.0,   -1.1,   -0.6,   -0.1,   -0.5,   -0.5,   -0.0,   -0.0,   -0.4,   -0.8,   -1.1,   -1.2,   -0.4,   -0.5,  999.0,  999.0,  999.0,  999.0,   -1.3,  999.0,   -0.3,   -0.5,    0.1,   -0.0,   -0.0,    0.1,   -0.4,    0.1,   -0.0,   -0.2,    0.1,   -0.0,   -0.0,    0.1,   -0.0,    0.2,    0.8,   -0.1,  999.0,   -0.0,    0.2,    0.1,  999.0,    0.1,  999.0,  999.0,  999.0,  999.0,  999.0,  999.0,  999.0,  999.0,  999.0,  999.0,  999.0,  999.0,  999.0,  999.0
2015/02/23 05:20,  999.0,  999.0,    0.2,    0.6,    0.4,    0.2,    0.2,   -0.0,    0.3,   -0.1,   -0.2,    0.0,   -0.0,   -0.0,   -0.2,   -0.2,   -0.2,   -0.0,   -0.0,   -0.0,   -0.0,   -0.4,   -0.2,   -0.3,   -0.2,   -0.6,   -0.7,   -0.5,   -0.3,   -0.3,   -0.6,   -1.1,   -1.0,  999.0,   -0.5,  999.0,    0.0,   -0.1,   -0.3,   -0.2,   -1.1,  999.0,  999.0,   -0.3,   -0.3,   -0.0,    0.1,    0.1,   -0.3,   -0.2,   -0.3,  999.0,    0.1,   -0.2,    0.3,    0.2,    0.4,    0.1,   -0.0,   -0.1,   -0.1,   -0.3,   -0.3,   -0.4,   -0.3,  999.0,  999.0,  999.0,   -0.4,  999.0,  999.0,  999.0,  999.0,   -0.0,  999.0,  999.0,  999.0,  999.0,  999.0,  999.0
2015/02/23 05:30,  999.0,  999.0,    0.1,    0.2,    0.3,    0.4,    0.6,    0.5,    0.3,    0.3,    0.2,    0.2,    0.1,    0.0,   -0.0,   -0.1,   -0.2,   -0.1,   -0.1,   -0.2,   -0.2,   -0.1,   -0.0,   -0.2,   -0.3,   -0.2,   -0.1,   -0.1,   -0.1,   -0.6,   -1.4,   -0.2,   -0.0,   -0.0,   -0.0,   -0.1,   -0.4,    0.2,    0.2,    0.4,  999.0,   -0.3,  999.0,   -0.1,   -0.1,    0.0,   -0.4,   -0.3,   -1.2,   -0.5,   -0.1,   -0.0,   -0.4,    0.0,   -0.1,   -0.3,    0.2,    0.2,   -0.1,    0.1,    0.4,   -0.4,   -0.1,   -0.1,   -0.3,    0.0,  999.0,  999.0,   -0.3,  999.0,  999.0,    0.1,  999.0,  999.0,  999.0,  999.0,  999.0,  999.0,  999.0,  999.0
2015/02/23 05:40,  999.0,    0.3,    0.7,    1.0,    1.1,    0.9,    0.6,    0.6,    0.4,    0.4,    0.3,    0.1,    0.0,   -0.1,    0.0,   -0.1,   -0.1,   -0.2,   -0.3,   -0.5,   -0.4,   -0.2,   -0.1,    0.2,   -0.0,    0.3,   -0.4,   -0.4,   -0.9,   -1.1,   -0.3,   -0.2,    0.1,   -0.1,    0.1,    0.1,  999.0,   -0.2,    0.1,   -0.2,    0.0,   -0.0,   -0.0,    0.1,   -0.0,   -0.3,   -0.5,    0.0,    0.3,   -0.0,   -0.1,    0.1,   -0.3,   -0.0,    0.1,    0.1,    0.1,    0.2,   -0.1,   -0.1,    0.0,    0.1,    0.1,   -0.1,   -0.0,   -0.2,  999.0,   -0.1,  999.0,   -0.1,  999.0,  999.0,  999.0,  999.0,  999.0,  999.0,  999.0,  999.0,  999.0,  999.0
2015/02/23 05:50,  999.0,    0.6,    1.4,    0.4,    0.5,    0.5,    0.6,    0.2,    0.4,    0.2,    0.3,    0.2,    0.1,    0.0,    0.1,   -0.0,   -0.1,   -0.1,   -0.1,   -0.3,   -0.2,   -0.2,    0.1,    0.1,   -0.2,    0.0,   -0.4,   -0.6,   -0.7,   -0.0,   -0.1,    0.1,   -0.1,   -0.2,    0.0,    0.2,   -0.1,    0.0,   -0.4,    0.1,    0.0,   -0.1,    0.1,    0.1,   -0.1,   -0.1,   -0.1,  999.0,   -0.2,   -0.2,   -0.0,   -0.1,   -0.1,    0.2,    0.2,   -0.0,    0.1,    0.2,   -0.0,   -0.1,    0.1,    0.1,    0.1,    0.1,    0.1,    0.1,    0.1,    0.4,    0.1,  999.0,  999.0,  999.0,  999.0,  999.0,  999.0,  999.0,  999.0,  999.0,  999.0,  999.0
2015/02/23 06:00,  999.0,    0.2,    1.0,    1.6,    0.7,    0.6,    0.6,    0.4,    0.5,    0.7,    0.8,    0.4,    0.2,    0.1,    0.1,    0.0,   -0.2,   -0.3,   -0.3,   -0.1,   -0.1,    0.1,    0.1,    0.0,    0.2,    0.2,   -0.4,   -0.4,   -0.2,   -0.2,   -0.1,   -0.0,   -0.1,    0.0,   -0.3,   -0.2,    0.0,    0.2,    0.0,   -0.1,    0.0,    0.1,    0.0,    0.1,   -0.1,    0.1,    0.0,   -0.0,   -0.1,   -0.8,   -0.0,    0.0,    0.2,   -0.0,   -0.0,   -0.0,   -0.0,   -0.1,    0.3,    0.3,   -0.1,    0.1,    0.1,   -0.0,  999.0,   -0.0,   -0.1,  999.0,  999.0,  999.0,  999.0,  999.0,  999.0,  999.0,  999.0,  999.0,  999.0,  999.0,  999.0,  999.0
2015/02/23 06:10,  999.0,    2.8,    4.0,    5.2,    3.5,    3.7,    1.7,    0.4,    1.1,    0.2,    0.6,    0.3,    0.1,    0.2,    0.1,   -0.3,   -0.7,   -1.7,   -0.7,   -0.3,   -0.1,    0.1,    0.1,    0.2,    0.2,   -0.6,   -0.8,   -0.6,   -0.1,   -0.5,    0.0,   -0.0,   -0.1,    0.0,   -0.5,   -0.2,  999.0,   -0.1,   -0.1,   -0.1,   -0.1,   -0.0,   -0.0,   -0.1,   -0.2,   -0.2,   -0.1,    0.0,   -0.1,   -0.5,   -0.2,   -0.1,   -0.0,   -0.1,   -0.4,    0.1,    0.1,   -0.1,    0.0,   -0.2,    0.0,   -0.0,   -0.1,   -0.2,   -0.3,   -0.1,    0.1,  999.0,  999.0,  999.0,  999.0,  999.0,  999.0,  999.0,  999.0,  999.0,  999.0,  999.0,  999.0,  999.0
2015/02/23 06:20,  999.0,    2.4,    5.3,    7.7,    4.8,    3.6,    2.4,    2.3,    2.3,    1.7,    1.6,    0.5,    0.0,    0.1,   -0.1,   -0.2,   -0.7,   -0.5,   -0.4,   -0.0,   -0.1,    0.1,    0.1,    0.4,    0.2,   -0.5,   -0.3,    0.2,    0.0,   -0.1,   -0.2,   -0.1,   -0.1,   -0.0,   -0.2,   -0.0,   -0.3,   -0.3,    0.1,   -0.0,   -0.1,   -0.0,    0.1,    0.1,    0.1,    0.1,    0.2,   -0.2,  999.0,  999.0,    0.1,    0.2,    0.2,   -0.1,   -0.0,   -0.2,   -0.1,    0.2,    0.0,    0.1,    0.2,   -0.1,   -0.0,    0.0,    0.2,    0.0,    0.2,  999.0,    0.3,  999.0,  999.0,  999.0,  999.0,  999.0,  999.0,  999.0,  999.0,  999.0,  999.0,  999.0
2015/02/23 06:30,  999.0,    1.5,    1.2,    4.4,    4.1,    0.9,    1.1,    1.2,    4.0,    1.2,    0.7,    0.2,    0.2,    0.0,   -0.0,   -0.2,   -0.2,   -0.3,    0.0,    0.0,   -0.3,   -0.4,   -1.1,   -1.9,   -1.1,    0.1,   -0.2,   -0.3,    0.4,    0.2,    0.3,    0.0,    0.1,    0.0,  999.0,   -0.2,    0.3,   -0.2,    0.0,    0.0,   -0.1,    0.1,    0.1,   -0.1,    0.2,    0.1,   -0.1,   -0.1,    0.0,    0.0,   -0.2,    0.1,    0.2,    0.1,    0.1,   -0.1,   -0.0,   -0.0,    0.0,    0.2,    0.1,   -0.1,   -0.0,    0.0,    0.1,   -0.1,   -0.5,  999.0,   -0.1,  999.0,  999.0,  999.0,    0.0,  999.0,  999.0,  999.0,  999.0,  999.0,  999.0,  999.0
2015/02/23 06:40,  999.0,    0.3,    1.5,    3.2,    4.2,    2.5,    1.8,    0.9,    1.9,    0.3,    0.3,    0.2,   -0.1,   -0.1,   -0.4,   -0.7,   -0.4,   -0.2,   -0.3,   -0.2,   -0.3,   -0.2,   -0.4,   -1.0,   -0.9,    0.3,    0.1,   -0.0,   -0.0,   -0.0,   -0.0,   -0.4,   -0.1,   -0.1,    0.2,    0.1,    0.0,   -0.1,    0.0,    0.1,    0.2,    0.2,    0.2,    0.2,   -0.2,   -0.2,   -0.2,   -0.1,    0.0,   -0.3,   -0.3,    0.1,   -0.0,   -0.1,    0.0,    0.0,    0.1,   -0.3,    0.1,   -0.0,   -0.1,   -0.3,   -0.1,    0.1,   -0.1,    0.1,   -0.1,    0.1,   -0.0,  999.0,  999.0,  999.0,    0.5,  999.0,  999.0,  999.0,  999.0,  999.0,  999.0,  999.0
2015/02/23 06:50,  999.0,    1.2,    2.2,    1.8,    2.1,    1.8,    1.6,    1.1,    0.6,    1.4,    1.2,    0.5,   -0.1,   -0.0,   -0.4,   -0.8,   -0.6,   -0.0,   -0.2,    0.3,   -0.3,    1.6,   -0.2,   -3.5,  999.0,  999.0,    0.3,    0.1,    0.1,   -0.1,    0.0,   -0.0,   -0.2,   -0.0,    0.1,   -0.0,   -0.0,   -0.0,    0.1,    0.0,    0.0,   -0.0,    0.0,   -0.1,   -0.1,    0.1,   -0.1,   -0.1,    0.1,   -0.1,    0.3,   -0.1,   -0.0,   -0.0,   -0.2,   -0.1,   -0.0,    0.0,    0.1,   -0.2,   -0.2,    0.0,    0.2,   -0.1,   -0.1,   -0.2,    0.1,   -0.0,    0.1,    0.2,  999.0,  999.0,  999.0,    0.3,  999.0,  999.0,  999.0,  999.0,  999.0,  999.0
2015/02/23 07:00,  999.0,   -0.2,   -0.1,    1.0,    1.8,    1.2,    1.1,    0.8,    1.3,    0.7,    0.7,    0.4,   -0.1,   -0.3,   -0.8,   -0.6,   -0.3,   -0.4,   -0.7,   -1.0,   -1.4,    0.6,  999.0,  999.0,    0.1,   -0.2,    0.2,   -0.1,    0.0,   -0.1,   -0.1,    0.3,    0.2,    0.2,    0.1,   -0.0,   -0.1,   -0.2,   -0.0,    0.0,   -0.1,   -0.2,   -0.1,   -0.1,    0.0,   -0.0,    0.0,   -0.0,   -0.1,   -0.0,    0.0,   -0.1,   -0.1,   -0.1,    0.0,    0.1,    0.1,    0.1,   -0.1,    0.1,   -0.0,   -0.1,   -0.1,    0.1,    0.2,   -0.2,   -0.1,  999.0,   -0.1,  999.0,  999.0,  999.0,  999.0,  999.0,  999.0,  999.0,  999.0,  999.0,  999.0,  999.0
2015/02/23 07:10,  999.0,    0.0,    0.7,    0.7,    1.4,    2.2,    2.9,    2.9,    2.7,    2.1,    1.4,    0.6,    0.0,   -1.0,   -0.9,   -2.1,   -1.5,   -0.1,    0.1,   -0.4,  999.0,   -0.1,  999.0,    1.3,    0.3,    0.1,    0.1,    0.0,   -0.1,    0.1,    0.0,   -0.0,    0.1,    0.1,   -0.1,   -0.1,   -0.1,   -0.0,    0.0,   -0.1,   -0.0,    0.1,   -0.0,   -0.2,   -0.1,   -0.0,   -0.0,   -0.1,   -0.0,    0.0,   -0.1,   -0.2,   -0.0,   -0.1,   -0.0,   -0.0,   -0.1,   -0.2,    0.4,    0.1,   -0.0,   -0.1,    0.2,    0.1,   -0.1,    0.0,   -0.3,    0.2,   -0.3,  999.0,  999.0,  999.0,  999.0,  999.0,  999.0,  999.0,  999.0,  999.0,  999.0,  999.0
2015/02/23 07:20,  999.0,   -0.6,   -1.1,   -0.2,    1.8,    1.9,    1.3,    1.1,    2.4,    3.8,    2.9,    1.7,    0.9,   -0.5,   -2.3,   -2.0,   -2.0,   -3.1,   -1.7,    1.0,  999.0,    2.7,    2.8,    0.7,    0.3,    0.0,   -0.1,   -0.1,   -0.1,    0.0,    0.1,    0.1,   -0.0,   -0.2,   -0.1,    0.1,    0.1,    0.2,    0.2,    0.2,    0.0,   -0.0,   -0.1,   -0.1,   -0.1,   -0.0,   -0.1,   -0.0,   -0.2,   -0.1,   -0.1,    0.0,   -0.0,   -0.2,    0.0,   -0.3,   -0.1,   -0.2,   -0.0,   -0.4,   -0.1,    0.3,   -0.0,   -0.1,   -0.1,   -0.1,  999.0,    0.2,    0.1,  999.0,  999.0,  999.0,   -0.1,  999.0,  999.0,  999.0,  999.0,  999.0,  999.0,  999.0
2015/02/23 07:30,  999.0,   -0.5,    0.0,    0.2,    1.3,    1.7,    1.7,    0.5,    0.5,    0.7,    1.0,    0.8,    1.0,   -0.1,   -0.7,   -0.6,   -1.0,    1.7,    2.2,    3.5,    4.3,   -0.9,  999.0,  999.0,   -0.3,   -0.0,   -0.1,   -0.1,    0.0,   -0.1,    0.2,    0.3,   -0.0,   -0.1,   -0.3,    0.0,    0.2,  999.0,    0.1,    0.1,   -0.1,    0.1,    0.0,   -0.2,   -0.2,   -0.1,    0.0,    0.0,    0.1,   -0.2,   -0.1,   -0.2,   -0.0,    0.0,   -0.1,    0.2,    0.0,    0.0,    0.1,    0.4,    0.1,    0.1,   -0.0,   -0.1,   -0.0,    0.1,   -0.2,   -0.2,    0.0,   -0.1,    0.2,  999.0,  999.0,   -0.3,  999.0,  999.0,  999.0,  999.0,  999.0,  999.0
2015/02/23 07:40,  999.0,    0.6,    0.7,    0.5,    0.8,    0.4,    1.0,    0.8,    0.6,    0.7,    1.3,    0.7,    0.3,    0.2,    0.1,   -0.2,    2.9,  999.0,  999.0,    2.9,    0.1,    0.1,  999.0,   -0.1,   -0.0,   -0.2,    0.0,    0.1,   -0.0,    0.1,   -0.0,   -0.0,   -0.1,   -0.0,   -0.0,    0.2,    0.2,    0.1,   -0.0,    0.1,    0.1,   -0.1,    0.2,    0.1,   -0.0,    0.1,    0.1,   -0.0,    0.0,   -0.1,   -0.2,    0.1,   -0.1,   -0.1,   -0.1,    0.0,   -0.2,    0.1,    0.1,    0.0,   -0.0,   -0.0,    0.0,    0.0,   -0.1,    0.0,   -0.1,   -0.2,  999.0,    0.1,   -0.1,    0.2,  999.0,   -0.1,  999.0,  999.0,  999.0,  999.0,  999.0,  999.0
2015/02/23 07:50,  999.0,   -0.5,    0.6,    0.2,    0.3,    0.3,    0.2,    0.0,    0.0,    0.0,    0.1,    0.0,   -0.0,   -0.1,   -0.1,    0.0,    0.0,    0.1,    0.0,    0.1,    0.0,   -0.0,   -0.0,    0.0,    0.0,    0.0,    0.1,   -0.1,   -0.0,    0.1,   -0.0,   -0.0,   -0.0,   -0.0,   -0.0,   -0.0,   -0.0,    0.1,    0.1,   -0.0,   -0.2,   -0.0,    0.1,    0.0,    0.1,  999.0,  999.0,   -0.0,   -0.0,    0.0,    0.0,    0.2,   -0.0,    0.0,   -0.2,   -0.1,   -0.1,   -0.1,   -0.0,   -0.1,    0.0,   -0.0,   -0.0,    0.0,   -0.0,    0.0,   -0.1,    0.3,   -0.1,   -0.1,   -0.1,    0.3,   -0.2,   -0.0,  999.0,  999.0,  999.0,  999.0,  999.0,  999.0
2015/02/23 08:00,  999.0,  999.0,   -0.1,   -0.1,   -0.1,    0.1,    0.1,   -0.1,    0.0,   -0.0,   -0.0,   -0.0,   -0.0,   -0.0,    0.0,    0.0,    0.0,   -0.0,   -0.0,    0.0,   -0.0,   -0.0,    0.1,   -0.0,   -0.1,   -0.0,    0.0,    0.0,   -0.2,   -0.0,   -0.0,   -0.0,   -0.1,   -0.0,   -0.0,   -0.1,   -0.0,   -0.0,    0.0,    0.0,    0.1,   -0.0,   -0.0,    0.0,   -0.0,   -0.0,    0.0,    0.0,    0.1,   -0.1,   -0.0,    0.1,   -0.0,   -0.0,    0.1,    0.0,   -0.0,   -0.1,   -0.0,   -0.0,    0.0,   -0.1,    0.0,    0.1,   -0.2,   -0.1,    0.2,    0.1,    0.3,   -0.1,   -0.2,   -0.0,  999.0,  999.0,  999.0,  999.0,  999.0,  999.0,  999.0,  999.0
2015/02/23 08:10,  999.0,   -0.1,   -0.1,   -0.1,    0.1,    0.0,    0.3,    0.6,    0.9,    0.6,    0.5,    0.4,   -0.1,   -0.1,    0.0,    0.0,   -0.0,   -0.1,    0.0,    0.1,    0.1,   -0.0,    0.3,    0.1,    0.1,    0.1,   -0.1,   -0.0,    0.0,   -0.1,    0.0,    0.1,    0.1,    0.0,   -0.0,    0.0,    0.0,   -0.1,   -0.0,    0.1,   -0.1,   -0.1,   -0.0,   -0.0,   -0.0,    0.0,    0.0,    0.0,   -0.0,   -0.1,    0.0,   -0.1,   -0.1,   -0.1,   -0.0,   -0.0,   -0.1,   -0.0,    0.0,    0.0,   -0.0,   -0.1,    0.0,    0.0,    0.1,    0.1,    0.0,    0.0,   -0.0,   -0.1,    0.1,    0.0,    0.2,    0.0,   -0.4,  999.0,  999.0,  999.0,  999.0,  999.0
2015/02/23 08:20,  999.0,    0.1,    0.3,   -0.2,    0.1,    0.2,    0.7,    1.3,    3.0,    1.9,    1.0,    1.1,    0.4,    0.0,   -0.5,   -0.2,   -0.1,   -0.7,   -0.5,   -0.5,   -0.8,   -0.4,    0.1,   -0.3,   -0.1,    0.1,   -0.2,   -0.1,    0.0,    0.1,   -0.0,    0.1,   -0.4,  999.0,   -0.2,   -0.1,    0.0,   -0.0,   -0.0,   -0.0,   -0.1,   -0.1,   -0.1,    0.0,    0.0,   -0.0,   -0.0,   -0.0,   -0.0,   -0.1,   -0.0,   -0.0,   -0.0,   -0.1,   -0.0,    0.1,    0.0,    0.1,    0.2,    0.1,    0.0,   -0.0,   -0.1,   -0.0,   -0.0,   -0.0,   -0.0,   -0.1,    0.1,   -0.1,    0.1,    0.1,    0.1,   -0.2,    0.3,  999.0,  999.0,  999.0,  999.0,  999.0
2015/02/23 08:30,  999.0,    0.0,   -0.1,   -0.3,   -0.1,   -0.1,    0.3,    1.1,    3.8,    3.3,    3.0,    1.7,    1.0,    1.2,    0.4,   -0.2,   -0.6,   -0.4,    0.1,  999.0,   -2.4,   -1.0,    0.5,    0.0,    0.1,    0.3,   -0.1,    0.0,    0.1,    0.0,    0.0,   -0.1,   -0.1,   -0.1,   -0.2,    0.2,    0.3,    0.3,    0.0,    0.0,   -0.0,   -0.1,    0.0,    0.0,   -0.0,    0.0,    0.1,    0.0,    0.0,    0.1,    0.1,    0.0,   -0.1,   -0.2,   -0.1,    0.0,    0.0,    0.2,   -0.1,   -0.0,   -0.1,   -0.1,    0.2,  999.0,  999.0,   -0.1,    0.1,   -0.1,   -0.4,    0.1,  999.0,   -0.1,  999.0,  999.0,  999.0,  999.0,  999.0,  999.0,  999.0,  999.0
2015/02/23 08:40,  999.0,    0.0,    0.1,   -0.1,    0.2,    0.3,    1.5,    1.9,    2.6,    3.2,    3.3,    3.1,    3.1,    1.8,    0.2,   -0.0,   -0.1,    0.6,    0.1,    0.9,    0.0,   -0.5,   -1.9,   -1.2,   -0.2,   -0.0,   -0.1,    0.4,   -0.0,    0.1,   -0.0,   -0.2,    0.1,   -0.0,   -0.3,  999.0,    0.0,   -0.1,    0.1,   -0.1,   -0.2,   -0.1,   -0.0,    0.1,   -0.0,    0.1,  999.0,   -0.0,    0.0,    0.0,    0.1,    0.1,    0.2,    0.0,   -0.0,    0.1,    0.1,    0.1,   -0.0,   -0.1,    0.1,   -0.1,    0.1,  999.0,  999.0,   -0.1,   -0.4,   -0.1,  999.0,    0.1,  999.0,  999.0,   -0.4,  999.0,  999.0,  999.0,  999.0,  999.0,  999.0,  999.0
2015/02/23 08:50,  999.0,   -0.0,   -0.1,   -0.4,    0.0,    0.0,    0.3,    1.1,    2.2,    2.1,  999.0,    1.3,    0.9,    0.9,    0.1,    0.0,    0.4,  999.0,   -0.7,    0.5,  999.0,  999.0,  999.0,  999.0,   -0.4,   -0.4,    0.0,   -0.1,   -0.1,    0.2,   -0.2,   -0.1,    0.0,    0.0,    0.1,    0.2,    0.2,    0.1,   -0.1,   -0.2,   -0.0,    0.0,    0.0,   -0.0,   -0.1,   -0.0,   -0.0,   -0.1,   -0.1,   -0.1,   -0.2,    0.0,    0.0,    0.1,    0.0,   -0.3,    0.2,    0.0,   -0.0,    0.0,    0.2,    0.0,   -0.0,   -0.0,  999.0,    0.3,    0.1,    0.0,   -0.1,   -0.2,  999.0,  999.0,   -0.0,  999.0,  999.0,  999.0,  999.0,  999.0,  999.0,  999.0
2015/02/23 09:00,  999.0,    0.1,    0.0,    0.1,    0.0,    0.1,    0.6,    0.3,    0.6,    0.6,  999.0,    0.4,   -0.0,    0.0,  999.0,  999.0,  999.0,  999.0,  999.0,  999.0,    6.9,  999.0,  999.0,  999.0,   -0.1,   -0.0,   -0.0,   -0.0,   -0.1,   -0.1,    0.1,    0.1,   -0.2,   -0.2,    0.2,   -0.3,   -0.3,   -0.2,   -0.1,    0.0,   -0.1,   -0.1,    0.0,   -0.0,    0.0,    0.1,    0.2,   -0.1,    0.1,   -0.1,   -0.0,   -0.0,    0.2,    0.2,   -0.2,   -0.1,    0.0,   -0.3,    0.0,    0.1,   -0.1,   -0.0,    0.0,  999.0,   -0.1,    0.1,    0.2,    0.2,    0.4,    0.1,    0.0,    0.0,   -0.0,   -0.2,   -0.4,  999.0,  999.0,  999.0,  999.0,  999.0
2015/02/23 09:10,  999.0,    0.1,   -0.0,   -0.2,   -0.0,   -0.2,    0.1,    0.7,    1.2,    0.8,    1.0,    0.9,    0.2,    0.3,    0.2,    0.0,   -0.1,  999.0,  999.0,  999.0,  999.0,  999.0,  999.0,  999.0,  999.0,   -0.0,   -0.1,    0.0,    0.2,   -0.2,   -0.1,   -0.1,    0.0,   -0.0,    0.3,    0.1,    0.0,   -0.0,   -0.1,   -0.0,    0.0,    0.0,   -0.1,   -0.1,   -0.0,    0.0,   -0.1,   -0.1,    0.1,    0.1,    0.1,    0.1,   -0.1,    0.1,    0.1,    0.1,    0.0,    0.1,   -0.1,   -0.2,   -0.1,   -0.0,    0.1,    0.0,    0.2,    0.2,    0.0,   -0.1,   -0.1,   -0.3,   -0.2,    0.1,    0.2,   -0.0,   -0.1,  999.0,  999.0,  999.0,  999.0,  999.0
2015/02/23 09:20,  999.0,    0.0,   -0.1,   -0.0,   -0.0,    0.2,    0.5,    0.8,    0.9,    1.5,    1.6,    1.4,    0.9,    0.5,    0.2,    0.0,    0.0,    0.2,  999.0,  999.0,  999.0,  999.0,  999.0,  999.0,  999.0,   -0.6,   -0.1,    0.3,    0.2,   -0.1,    0.2,   -0.3,   -0.2,    0.0,  999.0,   -0.0,   -0.1,   -0.1,   -0.2,   -0.3,   -0.0,    0.1,   -0.1,    0.0,    0.1,    0.1,    0.0,   -0.1,   -0.0,   -0.0,    0.1,    0.1,    0.1,    0.1,   -0.1,   -0.2,    0.0,    0.1,   -0.0,   -0.1,   -0.0,    0.0,   -0.0,   -0.0,    0.2,   -0.0,   -0.0,    0.1,    0.1,   -0.0,   -0.0,   -0.0,    0.1,   -0.1,   -0.1,  999.0,  999.0,  999.0,  999.0,  999.0
2015/02/23 09:30,  999.0,    0.2,    0.1,    0.0,    0.1,    0.0,    0.3,    0.3,    1.2,    2.2,    1.9,    1.3,    1.2,    0.9,    0.5,    0.3,   -0.0,   -0.0,   -0.3,    0.1,    0.4,    0.6,    1.0,    0.4,    0.1,    0.0,    0.2,    0.0,   -0.1,   -0.1,    0.2,   -0.1,    0.0,   -0.1,    0.1,   -0.2,    0.2,   -0.1,   -0.0,    0.0,   -0.0,   -0.1,   -0.1,   -0.1,   -0.1,   -0.0,   -0.0,    0.0,   -0.0,    0.0,    0.1,    0.0,    0.0,   -0.0,   -0.0,   -0.1,    0.0,   -0.1,    0.1,   -0.0,   -0.1,    0.0,    0.1,  999.0,   -0.1,    0.1,   -0.0,    0.1,   -0.1,    0.1,   -0.0,   -0.0,   -0.0,   -0.3,    0.1,  999.0,  999.0,  999.0,  999.0,  999.0
2015/02/23 09:40,  999.0,   -0.0,    0.1,   -0.1,   -0.2,    0.0,    0.0,    0.2,    0.4,    0.8,    2.9,  999.0,  999.0,    1.1,    0.3,    0.5,   -0.1,   -0.0,   -0.1,   -0.5,  999.0,  999.0,   -1.5,   -0.1,   -0.2,   -0.1,    0.2,    0.0,    0.0,   -0.1,   -0.0,   -0.1,    0.1,    0.3,   -0.1,   -0.3,   -0.2,   -0.0,   -0.0,    0.1,   -0.1,   -0.1,    0.0,    0.1,    0.0,    0.1,   -0.0,   -0.0,    0.0,   -0.0,   -0.1,   -0.1,    0.1,    0.1,   -0.1,    0.0,   -0.1,   -0.1,   -0.3,    0.0,    0.0,   -0.2,    0.1,  999.0,    0.2,    0.1,   -0.2,    0.0,   -0.1,  999.0,   -0.1,    0.2,    0.1,   -0.0,   -0.0,  999.0,  999.0,  999.0,  999.0,  999.0
2015/02/23 09:50,  999.0,   -0.0,   -0.2,   -0.0,    0.0,   -0.0,    0.2,    0.3,    1.3,  999.0,  999.0,  999.0,  999.0,  999.0,  999.0,  999.0,    0.2,    0.7,    1.4,  999.0,  999.0,   -0.7,   -0.4,    0.1,   -0.1,    0.1,   -0.1,    0.0,    0.0,    0.0,    0.0,   -0.1,   -0.2,   -0.0,    0.0,    0.1,    0.3,    0.2,    0.1,    0.1,   -0.0,   -0.0,    0.0,   -0.0,   -0.0,    0.0,   -0.0,    0.0,    0.1,    0.1,   -0.0,    0.1,   -0.0,   -0.1,    0.0,   -0.1,    0.1,   -0.1,   -0.0,    0.1,    0.1,   -0.0,   -0.0,  999.0,    0.1,   -0.0,    0.0,   -0.0,    0.2,    0.1,   -0.0,    0.1,    0.4,    0.3,   -0.2,  999.0,  999.0,  999.0,  999.0,  999.0
2015/02/23 10:00,  999.0,   -0.1,    0.1,   -0.1,   -0.1,   -0.0,   -0.1,   -0.1,    0.0,    1.0,  999.0,  999.0,    2.4,    1.0,    0.2,    0.2,    0.1,    0.3,    0.1,    0.2,    0.7,   -0.8,   -0.5,   -0.5,  999.0,   -0.1,   -0.0,   -0.1,   -0.1,   -0.1,   -0.1,   -0.3,   -0.2,   -0.7,   -0.1,   -0.2,    0.0,   -0.1,   -0.0,    0.0,   -0.0,    0.1,    0.1,    0.0,    0.1,    0.0,    0.0,    0.1,    0.0,   -0.0,    0.1,    0.0,    0.1,    0.0,   -0.0,   -0.0,   -0.3,   -0.1,   -0.0,   -0.1,    0.1,   -0.1,    0.1,    0.0,    0.1,    0.2,    0.4,    0.1,  999.0,  999.0,   -0.2,    0.2,  999.0,    0.2,  999.0,  999.0,  999.0,  999.0,  999.0,  999.0
2015/02/23 10:10,  999.0,    0.1,    0.3,   -0.1,   -0.8,  999.0,   -0.5,    0.3,    0.7,    1.2,    1.2,    1.2,    1.3,    0.6,    0.1,    0.1,    0.0,  999.0,   -0.1,  999.0,  999.0,    0.4,    0.2,   -0.7,   -0.2,   -0.0,   -0.2,    0.0,    0.0,    0.0,    0.0,    0.0,   -0.3,   -0.2,   -0.1,    0.3,    0.2,    0.1,    0.0,   -0.0,    0.0,    0.0,   -0.1,   -0.0,    0.0,    0.0,    0.1,   -0.0,   -0.1,   -0.0,   -0.1,    0.1,    0.0,   -0.1,   -0.1,   -0.1,    0.0,   -0.0,   -0.3,    0.2,    0.1,   -0.0,   -0.2,   -0.1,  999.0,    0.1,    0.1,    0.1,   -0.2,   -0.0,    0.1,    0.1,    0.2,    0.0,    0.1,  999.0,  999.0,  999.0,  999.0,  999.0
2015/02/23 10:20,  999.0,    0.1,   -0.1,    0.2,    0.2,   -0.2,   -0.5,    0.2,    1.4,    1.8,    2.3,    2.1,    1.4,    1.8,    0.9,    0.1,    0.1,   -0.0,    0.1,   -0.2,    0.8,    1.2,    1.3,    0.1,   -0.2,    0.0,   -0.1,   -0.1,   -0.4,   -0.2,   -0.2,    0.1,   -0.1,   -0.1,   -0.3,   -0.0,   -0.1,   -0.1,   -0.0,    0.0,   -0.1,   -0.2,    0.1,    0.0,   -0.0,   -0.0,   -0.0,    0.1,    0.1,   -0.0,   -0.0,    0.0,   -0.1,   -0.0,   -0.0,   -0.0,    0.1,   -0.1,   -0.1,    0.2,   -0.1,   -0.1,   -0.1,   -0.2,   -0.2,   -0.2,   -0.0,   -0.0,    0.0,   -0.1,    0.1,    0.4,    0.2,  999.0,   -0.0,  999.0,  999.0,  999.0,  999.0,  999.0
2015/02/23 10:30,  999.0,    0.3,    0.0,    0.2,   -0.1,   -0.4,    1.1,    1.2,    1.8,    1.5,    0.3,    3.0,    1.9,    1.0,    0.7,    0.4,   -0.0,   -0.0,    0.1,    0.0,    0.2,    0.1,    0.3,   -0.0,   -0.5,    0.0,   -0.1,   -0.0,    0.0,   -0.2,    0.0,    0.1,   -0.1,   -0.2,   -0.2,   -0.1,    0.0,    0.0,    0.1,    0.1,   -0.1,   -0.1,    0.1,    0.0,   -0.1,   -0.1,    0.0,    0.2,    0.1,   -0.0,    0.0,   -0.1,    0.0,    0.0,    0.1,   -0.0,    0.1,   -0.0,   -0.3,   -0.1,   -0.0,   -0.1,   -0.1,   -0.0,   -0.3,   -0.0,   -0.2,   -0.1,   -0.1,   -0.3,   -0.0,   -0.2,   -0.1,   -0.1,   -0.0,  999.0,  999.0,  999.0,  999.0,  999.0
2015/02/23 10:40,  999.0,    0.6,   -0.7,    0.1,   -0.7,   -0.6,    2.2,    0.2,    0.7,    1.4,    0.9,    1.7,    1.6,    1.0,    0.5,    0.2,   -0.0,    0.1,    0.5,    0.0,    1.0,    0.7,    1.6,    1.2,  999.0,   -0.1,   -0.0,    0.1,    0.2,   -0.2,   -0.1,    0.1,   -0.2,   -0.0,   -0.0,    0.2,    0.1,    0.1,   -0.0,   -0.1,   -0.1,   -0.1,   -0.0,    0.1,    0.1,    0.1,    0.0,    0.0,   -0.1,    0.1,    0.0,   -0.1,   -0.0,    0.1,    0.1,    0.1,   -0.0,    0.0,    0.1,    0.1,    0.0,   -0.0,    0.1,   -0.2,  999.0,  999.0,   -0.1,   -0.0,   -0.5,   -0.1,    0.2,   -0.1,   -0.2,   -0.1,   -0.2,  999.0,  999.0,  999.0,  999.0,  999.0
2015/02/23 10:50,  999.0,   -0.2,   -0.2,   -0.4,    0.2,   -0.0,    0.2,    0.2,   -0.0,    0.3,    0.2,    0.4,    0.5,    0.6,    0.4,    0.2,    0.2,    0.5,    0.7,    1.0,    2.2,    3.1,    2.4,    2.1,    0.4,    0.0,    0.1,    0.1,   -0.0,   -0.0,    0.0,    0.1,    0.1,    0.1,   -0.1,   -0.1,   -0.1,   -0.1,   -0.1,   -0.1,    0.1,   -0.1,   -0.1,   -0.0,   -0.1,    0.1,   -0.0,   -0.1,   -0.1,    0.1,    0.1,   -0.0,   -0.1,   -0.1,    0.1,   -0.1,    0.1,   -0.1,   -0.0,   -0.0,   -0.0,    0.0,    0.0,   -0.2,  999.0,    0.4,    0.0,   -0.2,   -0.3,    0.1,    0.2,   -0.1,    0.1,   -0.1,   -0.1,  999.0,  999.0,  999.0,  999.0,  999.0
2015/02/23 11:00,  999.0,    0.2,   -0.2,   -0.2,   -0.8,   -0.1,    1.0,    0.6,    0.6,    0.5,    0.6,    0.7,    0.7,    1.1,    0.7,    0.4,    0.2,    0.4,    1.0,    1.2,    1.9,    2.5,    2.1,    0.9,    0.3,   -0.1,   -0.1,   -0.2,    0.1,   -0.0,    0.1,   -0.0,    0.0,   -0.5,    0.0,   -0.0,    0.2,    0.1,   -0.2,    0.0,   -0.2,   -0.1,    0.0,   -0.1,   -0.1,   -0.0,    0.1,    0.0,    0.1,   -0.1,   -0.1,   -0.0,   -0.2,    0.0,   -0.0,   -0.0,   -0.0,   -0.0,    0.1,   -0.2,    0.0,   -0.1,   -0.1,   -0.1,   -0.0,  999.0,    0.3,    0.1,    0.2,    0.1,   -0.0,   -0.1,   -0.1,   -0.1,    0.1,  999.0,  999.0,  999.0,  999.0,  999.0
2015/02/23 11:10,  999.0,    0.1,    0.4,    0.1,   -0.0,    0.1,    0.1,    0.4,    0.3,    0.1,    0.5,    0.7,    0.4,    1.1,    1.1,    0.3,    0.2,   -0.0,   -0.1,  999.0,  999.0,  999.0,  999.0,    2.3,    0.1,   -0.0,    0.0,    0.2,    0.1,    0.1,   -0.0,   -0.0,    0.0,    0.1,    0.0,    0.0,    0.0,   -0.0,   -0.1,    0.0,   -0.1,    0.0,   -0.0,   -0.1,    0.0,    0.0,   -0.0,   -0.0,   -0.0,    0.1,   -0.0,   -0.2,   -0.0,   -0.0,   -0.0,    0.0,   -0.0,   -0.2,   -0.0,    0.1,   -0.0,   -0.1,   -0.1,   -0.1,    0.4,   -0.2,   -0.0,   -0.1,    0.1,    0.0,    0.1,    0.2,   -0.2,    0.0,    0.1,  999.0,  999.0,  999.0,  999.0,  999.0
2015/02/23 11:20,  999.0,    0.1,    0.2,    0.1,    0.1,   -0.1,   -0.1,   -0.1,    0.2,    0.2,    0.4,    0.5,    0.5,    0.4,    0.1,    0.0,    0.1,   -0.0,    0.7,    1.6,    2.4,    2.3,    2.2,    1.2,    0.3,   -0.0,   -0.0,    0.1,   -0.0,    0.1,   -0.1,    0.1,    0.1,   -0.0,   -0.1,   -0.1,   -0.0,    0.0,   -0.1,   -0.0,   -0.0,    0.0,   -0.0,   -0.0,    0.1,   -0.0,    0.0,   -0.0,    0.0,    0.1,    0.1,    0.0,   -0.1,   -0.0,    0.0,   -0.0,   -0.0,   -0.0,    0.3,    0.2,    0.1,    0.3,   -0.1,   -0.0,   -0.2,    0.0,   -0.1,   -0.1,   -0.2,   -0.0,    0.1,   -0.1,   -0.2,   -0.0,    0.1,  999.0,  999.0,  999.0,  999.0,  999.0
2015/02/23 11:30,  999.0,   -1.0,   -0.1,    0.1,    0.0,   -0.0,    0.2,    0.2,    0.2,    0.4,    0.6,    0.7,    0.2,    0.4,    0.2,    0.1,   -0.2,   -0.2,    0.2,    0.4,    2.5,    1.8,    0.8,    1.5,    0.9,    0.4,    0.0,    0.0,    0.0,   -0.1,    0.0,    0.0,   -0.1,    0.2,   -0.1,    0.1,   -0.0,    0.1,    0.1,    0.1,   -0.2,   -0.1,   -0.1,    0.1,   -0.0,  999.0,    0.1,    0.1,   -0.0,   -0.0,   -0.1,   -0.0,   -0.1,   -0.0,    0.1,    0.0,   -0.0,   -0.1,    0.1,   -0.0,   -0.0,   -0.2,   -0.0,   -0.2,    0.2,   -0.0,    0.1,   -0.2,   -0.1,   -0.1,    0.0,    0.1,    0.1,   -0.0,   -0.1,  999.0,  999.0,  999.0,  999.0,  999.0
2015/02/23 11:40,  999.0,  999.0,    0.4,    0.0,    0.1,    0.1,    0.1,   -0.0,    0.2,    0.2,    0.6,    0.6,    0.3,    0.8,    0.6,    0.4,   -0.0,   -0.3,    0.4,    1.6,  999.0,    1.6,    1.8,    2.4,    0.6,    0.4,    0.0,    0.1,   -0.0,    0.1,    0.0,   -0.0,   -0.1,    0.0,   -0.2,   -0.0,   -0.1,   -0.1,   -0.2,    0.1,   -0.1,   -0.1,    0.1,    0.1,   -0.0,   -0.1,  999.0,   -0.1,   -0.0,   -0.1,   -0.0,   -0.0,    0.0,    0.0,    0.0,    0.0,   -0.2,   -0.1,   -0.1,    0.0,   -0.1,    0.0,    0.0,    0.0,    0.2,    0.0,    0.3,   -0.1,   -0.0,    0.1,    0.1,    0.1,   -0.1,  999.0,   -0.0,  999.0,  999.0,  999.0,  999.0,  999.0
2015/02/23 11:50,  999.0,  999.0,   -0.1,    0.2,   -0.0,    0.0,    0.0,    0.1,    0.3,    0.3,    0.8,    0.8,    0.9,    0.9,    1.0,    0.7,   -0.2,   -0.2,    0.3,    0.9,    1.8,    1.4,    1.3,    1.6,    0.4,    0.2,    0.1,    0.2,    0.1,    0.0,    0.2,    0.0,   -0.0,   -0.0,   -0.1,    0.1,    0.0,   -0.1,    0.0,   -0.1,   -0.1,    0.1,   -0.0,    0.0,    0.0,   -0.1,   -0.1,    0.0,    0.1,    0.2,    0.0,    0.1,    0.1,   -0.0,    0.1,   -0.1,    0.1,   -0.2,    0.0,   -0.1,    0.2,   -0.0,    0.2,    0.1,    0.0,    0.0,   -0.1,    0.1,  999.0,   -0.1,   -0.2,    0.2,    0.1,   -0.0,   -0.1,  999.0,  999.0,  999.0,  999.0,  999.0
2015/02/23 12:00,  999.0,    0.1,    0.1,    0.2,    0.2,    0.1,    0.1,    0.0,    0.4,    1.2,    1.5,    1.0,    1.0,    1.1,    1.3,    1.8,    1.9,    1.4,    0.7,    0.8,    0.6,    1.1,    0.8,    1.5,    0.8,    0.2,    0.2,    0.0,    0.0,   -0.0,   -0.0,    0.1,    0.1,   -0.0,    0.1,    0.1,    0.1,    0.1,    0.0,   -0.0,   -0.2,   -0.0,   -0.1,   -0.2,   -0.0,   -0.2,   -0.0,    0.0,   -0.0,   -0.0,    0.1,   -0.1,    0.1,    0.1,    0.1,    0.1,    0.0,    0.0,   -0.1,    0.3,    0.2,    0.3,   -0.0,   -0.1,   -0.1,    0.0,   -0.4,   -0.1,   -0.2,    0.1,    0.2,    0.2,    0.1,    0.1,   -0.2,  999.0,  999.0,  999.0,  999.0,  999.0
2015/02/23 12:10,  999.0,    0.1,    0.2,    0.3,    0.1,    0.0,    0.3,    0.3,    0.3,    0.9,    1.3,    1.2,    0.9,    1.1,    0.9,    0.8,  999.0,    2.6,  999.0,  999.0,  999.0,  999.0,  999.0,    2.3,    0.9,    0.8,    0.6,    0.3,    0.1,   -0.1,    0.1,   -0.1,   -0.1,    0.1,    0.1,   -0.2,   -0.1,    0.0,   -0.1,   -0.1,   -0.3,   -0.4,   -0.1,   -0.1,   -0.1,    0.0,   -0.2,    0.1,    0.0,    0.0,   -0.0,    0.0,    0.1,   -0.2,   -0.2,   -0.0,    0.1,   -0.2,   -0.1,    0.3,   -0.1,   -0.1,   -0.1,   -0.0,   -0.0,    0.0,   -0.0,    0.1,   -0.2,  999.0,   -0.1,   -0.1,   -0.1,    0.1,    0.1,  999.0,  999.0,  999.0,  999.0,  999.0
2015/02/23 12:20,  999.0,    0.1,    0.1,    0.2,   -0.0,    0.2,    0.3,    0.1,    0.4,    0.6,    0.5,    0.9,    0.6,    0.4,    0.4,    0.4,    0.1,   -0.2,    0.8,    1.1,    1.2,    2.6,  999.0,  999.0,    1.9,    0.6,    0.2,    0.0,   -0.0,   -0.0,   -0.1,   -0.1,    0.1,    0.2,    0.0,    0.1,   -0.0,    0.0,   -0.0,   -0.0,   -0.1,   -0.0,    0.1,    0.0,   -0.0,   -0.0,   -0.1,   -0.0,    0.1,    0.2,    0.1,   -0.0,   -0.1,   -0.1,   -0.0,    0.2,    0.0,   -0.2,    0.1,    0.1,    0.1,    0.1,    0.1,    0.1,    0.1,   -0.0,   -0.1,   -0.1,    0.1,   -0.0,   -0.1,    0.1,   -0.0,   -0.0,   -0.2,  999.0,  999.0,  999.0,  999.0,  999.0
2015/02/23 12:30,  999.0,    0.1,   -0.1,   -0.0,    0.2,    0.1,    0.0,    0.1,    0.1,    0.2,    0.2,    0.4,    0.9,    0.5,    0.8,    0.6,    0.6,    0.1,    1.3,  999.0,    1.5,    2.4,    1.4,    2.5,    2.8,    1.9,    0.7,    0.3,    0.3,    0.3,    0.0,   -0.0,   -0.1,    0.2,   -0.1,    0.0,    0.1,    0.1,    0.1,    0.0,   -0.0,   -0.0,    0.1,    0.1,    0.1,   -0.1,   -0.1,   -0.1,    0.0,    0.1,   -0.0,   -0.2,   -0.1,   -0.0,    0.1,    0.1,   -0.0,    0.3,    0.2,    0.2,   -0.1,    0.2,   -0.1,    0.0,    0.1,    0.0,   -0.2,   -0.0,   -0.1,    0.1,   -0.1,   -0.1,   -0.1,    0.0,    0.1,  999.0,  999.0,  999.0,  999.0,  999.0
2015/02/23 12:40,  999.0,   -0.0,   -0.1,   -0.0,    0.1,   -0.1,    0.1,    0.3,    0.0,    0.2,    0.2,    0.4,    0.2,    0.2,    0.0,   -0.1,    0.2,    0.2,    0.0,   -0.3,    0.0,    0.5,    1.0,    0.7,    0.7,    0.7,    1.2,    2.2,    0.2,    0.0,    0.2,    0.0,   -0.0,   -0.2,   -0.1,    0.0,    0.1,    0.2,    0.2,    0.1,   -0.2,   -0.1,    0.1,    0.2,   -0.0,   -0.1,   -0.1,   -0.1,    0.0,    0.2,    0.1,    0.2,    0.1,    0.0,   -0.1,    0.0,    0.0,   -0.0,    0.1,   -0.1,   -0.1,    0.0,    0.0,    0.1,  999.0,    0.0,   -0.0,    0.4,   -0.1,   -0.0,   -0.0,  999.0,    0.1,    0.1,   -0.0,  999.0,  999.0,  999.0,  999.0,  999.0
2015/02/23 12:50,  999.0,    0.0,    0.1,    0.0,    0.0,   -0.0,  999.0,  999.0,  999.0,  999.0,    0.0,    0.0,    0.1,    0.0,    0.1,    0.2,   -0.0,    0.0,    0.4,    0.8,    1.0,    0.6,    0.0,    0.4,    0.3,    0.8,    2.5,    1.4,    0.3,   -0.1,    0.0,   -0.2,    0.0,    0.1,   -0.0,   -0.0,    0.1,    0.2,   -0.0,   -0.0,   -0.1,   -0.1,   -0.0,    0.1,   -0.0,   -0.0,   -0.0,   -0.0,   -0.1,    0.1,   -0.0,    0.0,   -0.0,   -0.1,   -0.0,   -0.1,    0.0,    0.0,    0.0,    0.1,    0.1,   -0.1,   -0.1,    0.1,    0.1,    0.0,    0.1,   -0.0,    0.0,   -0.3,  999.0,    0.0,   -0.1,   -0.0,    0.1,  999.0,  999.0,  999.0,  999.0,  999.0
2015/02/23 13:00,  999.0,  999.0,   -0.0,    0.0,   -0.0,    0.1,    0.0,    0.2,  999.0,    0.3,   -0.0,   -0.1,    0.1,    0.0,    0.0,    0.0,   -0.0,   -0.0,    0.0,    0.1,    0.1,    0.1,    0.3,    0.2,   -0.1,    0.3,    0.6,    0.1,   -0.0,   -0.0,   -0.1,   -0.0,    0.1,    0.0,    0.2,    0.2,    0.1,    0.1,    0.1,    0.0,   -0.2,   -0.1,   -0.0,   -0.1,   -0.0,    0.1,   -0.0,    0.1,   -0.0,   -0.1,   -0.0,    0.1,   -0.1,    0.1,   -0.0,    0.1,    0.1,   -0.0,   -0.0,    0.0,   -0.1,    0.0,   -0.2,   -0.0,   -0.1,   -0.0,   -0.0,   -0.2,   -0.1,    0.1,    0.3,   -0.4,    0.0,    0.1,    0.1,  999.0,  999.0,  999.0,  999.0,  999.0
2015/02/23 13:10,  999.0,   -0.0,   -0.0,    0.1,   -0.0,  999.0,   -0.2,   -0.1,   -0.1,    0.1,   -0.0,   -0.0,  999.0,   -0.0,  999.0,    0.0,    0.0,   -0.0,    0.2,    0.0,    0.1,    0.3,    0.3,    0.5,    0.0,    0.2,    1.1,    0.7,    0.1,    0.0,    0.0,    0.1,   -0.1,    0.0,    0.1,    0.1,    0.1,    0.1,    0.1,    0.0,   -0.2,   -0.0,    0.0,   -0.1,    0.1,    0.0,   -0.0,   -0.1,    0.1,    0.0,   -0.0,   -0.2,   -0.0,   -0.2,   -0.2,    0.0,   -0.0,    0.1,   -0.0,    0.0,   -0.0,    0.0,   -0.1,   -0.2,    0.3,    0.0,   -0.2,    0.1,    0.0,   -0.2,    0.1,   -0.3,    0.1,   -0.0,    0.6,  999.0,  999.0,  999.0,  999.0,  999.0
2015/02/23 13:20,  999.0,    0.1,    0.0,   -0.0,   -0.3,   -0.1,  999.0,  999.0,  999.0,    0.3,   -0.0,   -0.0,    0.1,    0.1,    0.1,    0.1,    0.1,   -0.0,   -0.0,    0.0,    0.2,    0.3,    0.3,    0.1,   -0.0,    0.2,    0.6,    0.1,   -0.0,    0.2,   -0.0,   -0.0,   -0.0,   -0.1,    0.1,    0.0,   -0.0,   -0.1,    0.0,    0.0,   -0.1,   -0.2,   -0.1,   -0.0,   -0.1,   -0.1,    0.0,   -0.0,   -0.0,   -0.0,   -0.1,   -0.1,    0.1,   -0.1,    0.0,   -0.0,   -0.1,    0.1,    0.0,    0.1,   -0.1,   -0.1,   -0.1,    0.0,   -0.1,    0.1,   -0.1,   -0.0,   -0.2,    0.3,    0.0,    0.1,    0.1,    0.0,    0.2,  999.0,  999.0,  999.0,  999.0,  999.0
2015/02/23 13:30,  999.0,  999.0,   -0.2,   -0.1,   -0.1,    0.0,   -0.1,   -0.1,  999.0,    0.1,   -0.1,    0.0,    0.1,    0.1,    0.1,   -0.1,    0.0,   -0.0,    0.0,    0.0,    0.1,    0.2,   -0.1,    0.1,    0.1,    0.1,    0.1,  999.0,    0.0,    0.0,    0.0,    0.0,    0.0,   -0.0,    0.0,   -0.0,    0.0,   -0.0,    0.2,   -0.0,   -0.0,    0.1,    0.1,    0.1,   -0.1,   -0.0,    0.1,    0.0,    0.0,    0.0,    0.1,   -0.0,    0.1,   -0.0,   -0.0,    0.1,   -0.1,    0.1,   -0.0,   -0.0,   -0.0,    0.1,   -0.1,    0.0,   -0.0,   -0.1,   -0.0,   -0.1,   -0.0,    0.1,   -0.0,    0.1,   -0.0,   -0.0,    0.2,  999.0,  999.0,  999.0,  999.0,  999.0
2015/02/23 13:40,  999.0,  999.0,   -0.2,   -0.2,    0.0,   -0.1,   -0.0,    0.0,   -0.0,   -0.0,   -0.1,    0.0,   -0.1,    0.0,   -0.0,    0.1,    0.1,    0.0,    0.1,    0.1,   -0.0,    0.6,   -0.5,    0.4,    0.1,    0.2,   -0.0,    0.0,    0.1,   -0.0,   -0.0,   -0.0,   -0.0,    0.0,   -0.0,    0.1,   -0.0,   -0.0,    0.1,    0.0,   -0.1,   -0.0,    0.0,    0.0,    0.1,    0.2,    0.0,   -0.0,    0.0,   -0.1,    0.0,    0.1,    0.1,    0.1,    0.1,    0.0,    0.0,   -0.0,    0.1,    0.0,   -0.0,   -0.1,   -0.1,    0.0,   -0.0,   -0.1,    0.0,    0.1,   -0.0,    0.1,    0.0,   -0.0,   -0.0,    0.1,  999.0,  999.0,  999.0,  999.0,  999.0,  999.0
2015/02/23 13:50,  999.0,  999.0,   -0.1,    0.0,    0.0,   -0.0,    0.0,  999.0,   -0.0,   -0.0,   -0.1,    0.2,    0.1,   -0.0,    0.1,   -0.0,    0.2,   -0.1,   -0.1,   -0.2,   -0.4,   -0.3,    0.6,    0.2,    0.1,    0.0,   -0.2,    0.2,    0.0,    0.1,    0.1,    0.0,    0.0,   -0.1,   -0.1,    0.0,    0.0,   -0.0,    0.0,    0.0,   -0.0,    0.0,    0.2,    0.2,    0.1,    0.1,    0.1,   -0.0,   -0.0,    0.0,   -0.0,    0.0,    0.0,    0.1,    0.0,    0.2,   -0.1,   -0.1,   -0.0,   -0.1,   -0.2,    0.1,    0.1,   -0.1,    0.0,   -0.0,   -0.0,   -0.2,   -0.1,    0.3,   -0.3,    0.1,    0.0,    0.0,   -0.1,  999.0,  999.0,  999.0,  999.0,  999.0
2015/02/23 14:00,  999.0,  999.0,   -0.2,    0.0,   -0.0,  999.0,   -0.1,    0.0,    0.1,   -0.0,    0.0,    0.1,   -0.1,   -0.0,    0.0,    0.0,    0.0,    0.2,    0.1,   -0.3,   -0.1,   -0.5,   -0.8,   -0.2,    0.1,   -0.0,    0.1,    0.2,    0.0,   -0.1,    0.0,   -0.0,    0.0,    0.1,   -0.0,    0.1,    0.0,    0.0,   -0.1,   -0.1,   -0.1,   -0.1,   -0.1,    0.2,    0.1,    0.0,   -0.0,    0.1,   -0.0,    0.0,    0.0,    0.0,   -0.1,   -0.1,   -0.0,   -0.1,    0.1,    0.1,    0.0,    0.1,   -0.0,   -0.1,   -0.3,   -0.1,   -0.1,    0.1,   -0.2,    0.0,   -0.0,    0.0,   -0.2,   -0.1,   -0.0,    0.1,    0.0,  999.0,  999.0,  999.0,  999.0,  999.0
2015/02/23 14:10,  999.0,  999.0,   -0.1,   -0.1,    0.0,   -0.0,   -0.0,    0.2,    0.1,   -0.0,   -0.0,    0.1,   -0.0,   -0.0,   -0.1,    0.1,    0.2,    0.2,    0.3,    0.4,    0.1,   -0.2,    0.2,   -0.2,    0.2,    0.3,    0.3,    0.5,    0.2,    0.1,   -0.0,   -0.0,    0.0,   -0.0,    0.0,    0.1,   -0.0,    0.0,    0.1,    0.1,   -0.1,   -0.1,   -0.0,   -0.1,   -0.0,   -0.1,    0.1,   -0.0,   -0.1,   -0.1,    0.1,   -0.0,   -0.0,   -0.0,   -0.0,   -0.0,   -0.1,   -0.0,   -0.1,   -0.0,   -0.1,   -0.1,   -0.0,   -0.0,    0.0,    0.0,   -0.4,   -0.7,   -0.2,   -0.0,  999.0,   -0.0,   -0.1,   -0.0,    0.0,  999.0,  999.0,  999.0,  999.0,  999.0
2015/02/23 14:20,  999.0,  999.0,   -0.1,    0.0,   -0.0,   -0.0,   -0.0,    0.0,   -0.0,    0.1,    0.0,    0.1,    0.1,    0.2,    0.1,    0.1,    0.3,    0.3,    0.4,    0.8,  999.0,    0.7,    1.3,    1.0,    0.5,    0.2,    0.7,    0.3,    0.4,    0.1,   -0.1,   -0.0,   -0.1,   -0.1,    0.0,    0.0,    0.0,    0.0,    0.0,    0.2,    0.1,    0.1,    0.2,    0.1,   -0.1,   -0.2,    0.2,    0.1,    0.1,   -0.1,   -0.2,    0.0,    0.1,   -0.0,   -0.0,   -0.0,    0.0,    0.0,    0.2,   -0.1,   -0.0,   -0.1,   -0.0,    0.1,    0.0,    0.0,   -0.1,   -0.2,   -0.1,   -0.0,    0.2,   -0.2,    0.1,    0.1,    0.1,  999.0,  999.0,  999.0,  999.0,  999.0
2015/02/23 14:30,  999.0,  999.0,   -0.1,    0.1,    0.1,    0.2,    0.0,    0.1,   -0.0,   -0.0,    0.1,    0.1,    0.2,   -0.0,    0.1,   -0.1,    0.1,    0.1,   -0.3,    0.2,    0.7,    0.1,    0.7,  999.0,   -0.0,    0.1,    0.3,    0.4,    0.2,    0.2,   -0.0,    0.0,   -0.0,    0.1,    0.0,   -0.0,    0.1,    0.1,    0.1,    0.1,    0.1,    0.1,    0.2,   -0.0,   -0.0,   -0.0,   -0.1,   -0.0,    0.1,    0.1,    0.0,   -0.0,    0.1,    0.0,   -0.1,    0.1,   -0.0,    0.0,    0.1,   -0.1,    0.0,    0.0,   -0.2,    0.1,   -0.0,    0.1,   -0.0,    0.1,  999.0,   -0.1,    0.0,   -0.1,   -0.0,    0.0,   -0.2,  999.0,  999.0,  999.0,  999.0,  999.0
2015/02/23 14:40,  999.0,   -0.0,   -0.1,   -0.1,   -0.1,   -0.1,    0.1,    0.1,    0.0,    0.1,    0.4,    0.1,    0.1,   -0.0,   -0.0,    0.1,    0.0,   -0.2,   -0.2,  999.0,  999.0,   -0.2,    0.2,    0.7,  999.0,    0.1,  999.0,   -0.4,    0.1,   -0.1,   -0.3,   -0.3,    0.0,   -0.1,   -0.1,   -0.1,   -0.0,    0.0,    0.1,    0.1,    0.0,   -0.1,    0.2,    0.1,    0.0,   -0.1,   -0.2,   -0.1,    0.2,    0.0,    0.1,    0.3,    0.0,   -0.1,   -0.1,    0.2,    0.1,    0.1,    0.1,   -0.0,    0.1,    0.0,    0.1,    0.1,    0.1,   -0.0,    0.1,    0.0,    0.1,    0.0,   -0.0,    0.0,    0.0,    0.1,    0.2,  999.0,  999.0,  999.0,  999.0,  999.0
2015/02/23 14:50,  999.0,  999.0,   -0.1,    0.1,   -0.0,    0.1,   -0.2,    0.1,   -0.0,    0.0,    0.0,   -0.0,    0.1,   -0.2,   -0.1,   -0.1,   -0.1,  999.0,   -0.0,  999.0,  999.0,  999.0,  999.0,  999.0,  999.0,  999.0,  999.0,    4.5,    5.2,   -0.4,   -0.3,   -0.2,   -0.1,    0.0,    0.1,   -0.0,    0.0,    0.1,   -0.1,   -0.1,   -0.3,   -0.2,    0.0,    0.0,   -0.2,   -0.2,   -0.4,   -0.3,   -0.2,    0.2,    0.1,   -0.0,   -0.1,   -0.1,   -0.0,   -0.2,   -0.0,    0.1,    0.1,    0.1,    0.0,   -0.0,   -0.1,   -0.3,    0.0,   -0.1,  999.0,    0.2,   -0.1,    0.1,    0.1,   -0.2,   -0.3,    0.0,   -0.1,  999.0,  999.0,  999.0,  999.0,  999.0
2015/02/23 15:00,  999.0,    0.1,    0.1,    0.0,    0.3,    0.0,   -0.1,   -0.1,   -0.0,    0.0,   -0.1,   -0.1,   -0.0,   -0.2,  999.0,   -0.4,   -0.2,   -0.1,   -0.2,  999.0,  999.0,  999.0,  999.0,  999.0,  999.0,   18.3,   18.8,   18.9,   17.6,   12.8,  999.0,  999.0,  999.0,  999.0,  999.0,    0.1,   -0.1,   -0.1,   -0.1,   -0.1,   -0.3,   -0.3,   -0.2,   -0.5,   -0.4,    0.0,   -0.2,   -0.4,   -0.4,    0.1,    0.0,   -0.2,    0.1,   -0.0,    0.1,   -0.0,   -0.0,    0.1,   -0.0,    0.1,   -0.1,    0.2,    0.3,    0.1,    0.1,   -0.4,    0.1,   -0.1,    0.0,   -0.1,    0.2,   -0.7,   -0.2,   -0.1,   -0.0,  999.0,  999.0,  999.0,  999.0,  999.0
2015/02/23 15:10,  999.0,   -0.0,   -0.1,   -0.1,   -0.0,   -0.1,    1.4,    1.4,    2.0,    1.4,    1.4,    1.6,    1.9,    2.2,    0.1,   -0.0,   -0.2,   -0.3,   -0.4,   -0.4,   -0.1,    1.8,    2.3,    0.0,  999.0,   -0.2,    2.9,    0.1,   -0.1,   -1.1,    0.2,   -0.5,    2.9,  999.0,    4.0,    0.0,    0.0,    0.1,    0.0,   -0.2,   -0.2,   -0.1,   -0.1,   -0.4,   -0.5,   -0.7,   -0.7,   -0.6,    0.1,   -0.0,    0.1,    0.2,   -0.0,   -0.0,    0.0,    0.2,    0.0,    0.1,    0.1,   -0.0,   -0.1,   -0.0,   -0.0,    0.2,   -0.0,    0.2,   -0.1,    0.2,   -0.1,   -0.1,    0.2,  999.0,    0.1,    0.0,   -0.2,  999.0,  999.0,  999.0,  999.0,  999.0
2015/02/23 15:20,  999.0,    0.1,    0.1,    0.1,    0.0,    0.1,    0.1,   -0.2,    0.1,   -0.1,    0.3,    2.3,    5.8,    9.4,   12.4,   12.9,   16.6,   15.0,  999.0,  999.0,  999.0,  999.0,   17.4,   16.7,   17.1,   17.9,   14.9,   11.1,   12.7,   13.5,   16.1,   15.9,   18.8,   10.9,  999.0,    5.4,  999.0,  999.0,   -0.1,    0.1,   -0.4,   -0.5,   -0.9,   -0.4,    0.3,    0.5,    0.1,   -0.3,   -0.2,   -0.1,    0.0,   -0.2,   -0.1,   -0.3,   -0.4,   -0.1,   -0.3,   -0.3,   -0.1,   -0.6,   -0.1,   -0.3,   -0.1,    0.1,    0.1,   -0.1,    0.0,   -0.2,   -0.2,   -0.0,  999.0,  999.0,   -0.0,    0.2,   -0.3,  999.0,  999.0,  999.0,  999.0,  999.0
2015/02/23 15:30,  999.0,  999.0,    0.0,    0.1,    0.0,   -0.0,  999.0,    0.3,    0.1,    0.1,    0.1,   -0.0,   -0.1,    2.9,    2.3,    7.2,    3.2,  999.0,  999.0,  999.0,  999.0,   24.3,   25.0,   21.0,   19.0,   18.3,   17.3,   16.0,   14.5,   14.3,   13.8,   13.1,   13.6,   15.8,  999.0,  999.0,  999.0,  999.0,  999.0,    0.2,   -0.2,   -0.3,   -0.3,   -0.3,   -0.0,   -0.2,   -0.1,    0.0,   -0.1,   -0.1,    0.1,   -0.0,   -0.1,   -0.2,   -0.1,   -0.1,   -0.3,   -0.1,   -0.1,   -0.1,   -0.1,   -0.2,   -0.4,   -0.1,   -0.0,   -0.1,    0.0,    0.2,   -0.1,    0.0,  999.0,    0.1,    0.0,   -0.0,  999.0,  999.0,  999.0,  999.0,  999.0,  999.0
2015/02/23 15:40,  999.0,  999.0,    0.1,  999.0,    0.1,   -0.1,    0.3,    0.3,    0.2,    0.1,    0.7,   -0.3,  999.0,  999.0,  999.0,  999.0,   32.3,   30.2,   30.1,   31.4,   27.4,   26.8,   25.2,   26.4,   22.0,   19.6,   21.2,   19.3,   13.0,   13.9,   14.7,   15.9,   16.0,   12.9,  999.0,  999.0,  999.0,  999.0,   -0.1,   -0.3,   -0.4,   -0.7,   -0.5,   -0.4,    0.3,    0.2,    0.1,    0.1,   -0.0,   -0.1,   -0.0,    0.1,   -0.1,   -0.0,    0.1,    0.2,    0.0,    0.2,   -0.0,   -0.1,   -0.2,   -0.1,   -0.1,    0.1,   -0.0,    0.1,    0.1,    0.1,   -0.0,  999.0,    0.0,  999.0,   -0.2,   -0.1,   -0.0,  999.0,  999.0,  999.0,  999.0,  999.0
2015/02/23 15:50,  999.0,  999.0,    0.1,   -0.1,  999.0,    0.2,    0.1,    0.2,    0.2,    0.0,   10.3,    7.9,    7.7,   15.8,  999.0,  999.0,  999.0,  999.0,  999.0,  999.0,   31.2,  999.0,  999.0,  999.0,   18.4,   16.9,   15.5,   17.4,   17.6,  999.0,   14.1,   13.3,   16.8,  999.0,  999.0,  999.0,  999.0,  999.0,  999.0,  999.0,   -0.7,   -0.2,   -0.0,   -0.4,   -0.2,    0.0,    0.1,   -0.4,   -0.4,   -0.0,    0.0,   -0.1,   -0.1,   -0.0,   -0.1,   -0.2,   -0.0,   -0.2,   -0.1,   -0.1,   -0.2,    0.0,   -0.2,    0.0,  999.0,    0.0,    0.1,   -0.1,    0.1,  999.0,  999.0,    0.1,    0.1,   -0.1,  999.0,  999.0,  999.0,  999.0,  999.0,  999.0
2015/02/23 16:00,  999.0,   -0.0,    0.1,    0.2,    0.1,   -0.1,   -0.3,   -0.1,   -0.1,   -0.0,   -0.1,   -0.0,   -0.1,   -0.3,   -0.3,  999.0,  999.0,  999.0,  999.0,  999.0,  999.0,  999.0,  999.0,   19.3,   19.9,   18.8,   16.7,   16.2,   13.9,   14.5,   15.3,   11.7,   13.8,   13.7,  999.0,  999.0,  999.0,  999.0,  999.0,   -0.1,   -0.3,   -0.2,    0.1,   -0.1,   -0.3,   -0.2,   -0.2,    0.1,   -0.1,   -0.0,   -0.2,   -0.1,    0.0,    0.1,    0.1,   -0.1,   -0.1,    0.1,    0.0,   -0.1,    0.0,    0.0,   -0.1,   -0.0,   -0.2,   -0.0,    0.0,   -0.1,   -0.0,   -0.1,  999.0,  999.0,    0.1,   -0.1,   -0.1,  999.0,  999.0,  999.0,  999.0,  999.0
2015/02/23 16:10,  999.0,   -0.0,    1.2,    0.5,    0.1,    0.1,   -0.1,   -0.1,    3.2,    3.3,    5.6,    8.3,   -0.2,    3.3,    2.9,    2.9,    2.3,  999.0,  999.0,  999.0,  999.0,  999.0,  999.0,  999.0,   19.1,   17.8,   15.8,   16.9,   18.6,   18.5,  999.0,  999.0,  999.0,  999.0,  999.0,  999.0,  999.0,  999.0,  999.0,  999.0,  999.0,   -0.0,   -0.2,   -0.1,   -0.3,   -0.2,   -0.0,    0.1,    0.3,   -0.1,   -0.0,  999.0,   -0.2,    0.0,   -0.1,   -0.0,    0.2,    0.1,    0.2,    0.3,    0.1,   -0.0,    0.2,   -0.1,   -0.2,   -0.1,   -0.0,    0.0,    0.0,  999.0,  999.0,  999.0,   -0.3,  999.0,  999.0,  999.0,  999.0,  999.0,  999.0,  999.0
2015/02/23 16:20,  999.0,   -0.6,   -0.0,    0.1,    0.2,   -0.0,  999.0,  999.0,    6.2,    3.8,  999.0,    5.7,  999.0,  999.0,  999.0,    1.3,    2.7,    2.2,    7.7,    6.8,    6.6,   -0.2,    2.3,   -0.5,   -0.1,   -0.2,    1.0,    5.8,   -2.8,  999.0,  999.0,  999.0,   16.2,   15.6,   12.5,    9.9,    9.4,   11.5,  999.0,  999.0,  999.0,  999.0,    0.2,   -0.2,   -0.2,    0.1,    0.4,   -0.1,   -0.0,   -0.0,    0.2,    0.1,   -0.2,   -0.2,    0.2,   -0.2,   -0.1,    0.2,    0.1,    0.1,    0.1,   -0.2,    0.0,    0.1,   -0.1,    0.2,   -0.0,    0.2,  999.0,   -0.4,  999.0,    0.0,  999.0,  999.0,  999.0,  999.0,  999.0,  999.0,  999.0,  999.0
2015/02/23 16:30,  999.0,    0.1,    0.1,    0.2,    0.2,    0.2,    0.2,  999.0,  999.0,    8.2,   14.8,   15.5,   18.4,  999.0,  999.0,   26.3,   27.0,   23.5,   25.4,   20.7,   18.7,   19.4,   18.1,   15.0,   15.7,   14.6,   14.0,   14.8,   17.1,   12.6,   14.8,   11.8,   13.5,   15.3,   13.7,   12.5,   12.2,   13.6,  999.0,  999.0,  999.0,  999.0,   -0.2,   -0.2,   -0.8,   -0.2,   -0.1,    0.1,    0.1,    0.1,   -0.1,    0.1,    0.1,    0.0,    0.0,    0.1,   -0.1,   -0.1,   -0.1,    0.1,   -0.2,   -0.1,   -0.0,   -0.1,    0.1,    0.1,   -0.0,   -0.0,   -0.2,  999.0,  999.0,  999.0,  999.0,  999.0,  999.0,  999.0,  999.0,  999.0,  999.0,  999.0
2015/02/23 16:40,  999.0,   -0.3,  999.0,  999.0,    0.2,    0.3,    0.0,  999.0,  999.0,  999.0,   17.8,   19.0,   23.7,   21.6,   24.8,   24.0,   25.6,   27.6,   26.4,   29.9,   23.9,  999.0,   15.8,   15.9,  999.0,  999.0,  999.0,  999.0,  999.0,  999.0,    2.7,   -0.5,  999.0,  999.0,  999.0,    3.1,    2.9,  999.0,  999.0,  999.0,  999.0,  999.0,  999.0,  999.0,   -0.4,  999.0,  999.0,    0.0,    0.1,   -0.1,  999.0,   -0.3,   -0.1,   -0.3,   -0.4,  999.0,   -0.1,  999.0,  999.0,  999.0,    0.2,    0.1,    0.1,  999.0,  999.0,    0.1,    0.2,    0.2,  999.0,  999.0,  999.0,  999.0,  999.0,  999.0,  999.0,  999.0,  999.0,  999.0,  999.0,  999.0
2015/02/23 16:50,  999.0,   -0.1,   -0.2,   -0.2,   -0.0,    0.7,    0.7,    0.3,    0.6,    4.2,    3.0,    6.5,    5.0,    2.4,    1.9,    0.6,    1.3,    4.5,    5.3,    3.2,    2.5,   -0.1,   -0.2,   -0.0,    0.1,   -0.2,   -1.3,   -1.5,   -0.4,    1.0,   -1.7,   -1.7,   -2.1,   -2.3,   -2.5,   -3.5,  999.0,  999.0,  999.0,   -6.1,   -5.1,   -2.8,  999.0,   -0.1,    0.2,   -0.1,    0.1,    0.3,    0.2,  999.0,    0.2,  999.0,    0.4,   -0.1,    0.0,   -0.1,    0.0,    0.0,    0.0,   -0.3,    0.1,   -0.1,    0.2,   -0.1,    0.0,   -0.2,    0.2,   -0.0,  999.0,  999.0,  999.0,  999.0,  999.0,   -0.6,  999.0,  999.0,  999.0,  999.0,  999.0,  999.0
2015/02/23 17:00,  999.0,    0.2,    0.1,    0.3,    0.2,    0.6,   -0.1,    0.0,    0.6,    0.2,    0.2,    0.0,   -0.1,   -0.4,   -1.4,   -1.8,   -0.6,   -1.1,   -1.4,   -0.5,   -0.5,   -0.4,   -1.0,  999.0,  999.0,  999.0,  999.0,  999.0,  999.0,  999.0,  999.0,  999.0,  999.0,  999.0,  999.0,   13.0,  999.0,  999.0,  999.0,  999.0,  999.0,  999.0,  999.0,  999.0,  999.0,  999.0,  999.0,   -0.2,   -0.2,  999.0,  999.0,  999.0,  999.0,   -0.2,    0.1,    0.1,   -0.1,    0.0,   -3.1,   -2.3,   -3.3,   -1.8,   -0.3,   -0.2,    0.2,  999.0,  999.0,  999.0,  999.0,  999.0,  999.0,  999.0,  999.0,  999.0,  999.0,  999.0,  999.0,  999.0,  999.0,  999.0
2015/02/23 17:10,  999.0,    0.2,   -0.4,   -0.3,   -0.3,   -0.2,    0.0,   -0.1,    0.1,    0.2,    0.7,    0.8,    1.0,    0.8,   -0.3,   -0.7,   -0.4,   -0.1,   -0.2,   -1.1,  999.0,  999.0,  999.0,  999.0,  999.0,   15.5,  999.0,  999.0,  999.0,  999.0,  999.0,  999.0,  999.0,  999.0,  999.0,  999.0,  999.0,  999.0,  999.0,  999.0,  999.0,  999.0,  999.0,  999.0,  999.0,  -28.7,  -28.4,  -28.5,  -27.8,  -26.3,  -24.2,  -23.1,  999.0,  999.0,  999.0,  999.0,  999.0,  999.0,  999.0,  999.0,   -0.8,   -1.5,  999.0,   -0.9,   -1.4,    0.3,    1.5,  999.0,  999.0,  999.0,  999.0,  999.0,  999.0,  999.0,  999.0,  999.0,  999.0,  999.0,  999.0,  999.0
2015/02/23 17:20,  999.0,    0.2,    0.5,   -0.2,    0.5,    0.4,    0.3,    0.5,    0.1,    0.6,    0.1,   -0.0,    0.2,   -0.1,  999.0,   -0.2,   -0.4,   -0.6,   -0.9,   -1.7,   -3.3,   -3.4,  999.0,  999.0,  999.0,   10.0,   12.7,   14.7,   11.1,  999.0,   12.0,  999.0,  999.0,  999.0,  999.0,  999.0,  999.0,  999.0,  999.0,  999.0,  999.0,  999.0,  999.0,  999.0,  999.0,  -28.5,  -27.8,  -27.5,  -26.9,  -25.8,  -25.1,  -24.1,  -22.4,  999.0,  999.0,  999.0,  999.0,  999.0,  999.0,  999.0,  999.0,  999.0,    0.3,    4.4,    6.5,    7.7,    8.6,    8.7,  999.0,  999.0,  999.0,  999.0,  999.0,  999.0,  999.0,  999.0,  999.0,  999.0,  999.0,  999.0
2015/02/23 17:30,  999.0,   -0.2,   -0.4,   -0.2,    0.4,    0.5,    1.1,    0.2,   -0.1,   -0.3,   -0.0,    0.2,   -0.2,    0.2,   -0.1,    0.4,    0.1,   -0.1,   -0.5,   -0.6,   -0.6,   -0.4,   -0.5,  999.0,  999.0,  999.0,  999.0,  999.0,  999.0,  999.0,  999.0,  999.0,  999.0,  999.0,  999.0,  999.0,  999.0,   17.1,   18.4,  999.0,  999.0,  999.0,  999.0,  999.0,  999.0,  -27.8,  -29.5,  -29.4,  -27.5,  -24.3,  -24.6,  -23.5,  -23.2,  -22.8,  -21.6,  -22.7,  999.0,  999.0,  999.0,  -20.0,  999.0,  999.0,    8.3,   10.5,    9.9,   12.2,   16.4,   16.1,   15.2,  999.0,  999.0,  999.0,  999.0,  999.0,  999.0,  999.0,  999.0,  999.0,  999.0,  999.0
2015/02/23 17:40,  999.0,   -0.7,   -0.6,    0.1,   -0.3,   -0.3,   -0.9,   -0.0,    0.4,   -0.2,   -0.5,    0.4,    2.5,  999.0,  999.0,  999.0,    2.1,    1.1,    0.6,   -0.0,  999.0,  999.0,  999.0,  999.0,  999.0,  999.0,  999.0,  999.0,  999.0,   18.2,   17.3,   18.5,   21.3,   19.0,   19.8,   20.7,   17.9,   19.9,   17.9,   19.3,   19.7,   18.4,   19.8,   20.9,   18.2,   19.3,   19.4,   19.9,   20.3,    2.1,   20.8,  999.0,  -27.4,  -26.6,  999.0,  -26.9,  -25.5,  -25.4,  -25.3,  -24.4,  999.0,  999.0,  999.0,  999.0,  999.0,  999.0,  999.0,  999.0,  999.0,  999.0,  999.0,  999.0,  999.0,  999.0,  999.0,  999.0,  999.0,  999.0,  999.0,  999.0
2015/02/23 17:50,  999.0,    0.9,   -0.6,   -0.4,   -0.4,   -0.0,  999.0,  999.0,  999.0,  999.0,  999.0,  999.0,  999.0,  999.0,  999.0,  999.0,  999.0,  999.0,  999.0,    0.1,    0.0,    0.0,    0.0,    0.4,    0.2,    0.2,    0.3,   -0.1,   -0.0,    0.3,    0.5,   -0.2,    0.1,    0.8,  999.0,   14.2,  999.0,  999.0,  999.0,  999.0,   18.6,   18.6,   20.0,   21.2,   22.4,   21.3,   20.5,   19.8,   21.1,   23.4,  999.0,  999.0,  999.0,  999.0,  -26.6,  -25.1,  -24.0,  -23.0,  -21.7,  -19.2,  -20.5,  -20.2,  -18.9,  -18.2,  999.0,  -18.4,  999.0,  999.0,  999.0,  999.0,  999.0,  999.0,  999.0,  999.0,  999.0,  999.0,  999.0,  999.0,  999.0,  999.0
2015/02/23 18:00,  999.0,   -0.1,   -0.0,   -0.1,   -0.1,    0.1,   -0.1,  999.0,   -0.0,    0.1,    0.1,    0.4,    1.2,   -0.4,   -0.5,    0.0,   -0.3,    0.0,    0.0,   -0.0,   -0.0,   -0.0,    0.1,    0.2,   -0.1,    0.4,   -0.1,   -0.1,   -0.1,    0.1,   -0.1,   -0.2,   -0.4,   -0.1,   -0.9,  999.0,  999.0,  999.0,  999.0,  999.0,   15.1,   17.2,   17.9,   18.6,   20.8,  999.0,  999.0,   -7.0,  999.0,  999.0,  999.0,  -30.1,  -28.4,  -26.7,  -25.2,  -23.9,  -23.7,  -21.6,  -21.9,  -22.6,  -21.5,  -21.9,  999.0,  999.0,  999.0,  999.0,  999.0,  999.0,  999.0,  999.0,  999.0,  999.0,  999.0,  999.0,  999.0,  999.0,  999.0,  999.0,  999.0,  999.0
2015/02/23 18:10,  999.0,  999.0,    0.1,    0.3,    0.3,    0.2,    0.1,   -0.1,   -0.1,    0.1,    0.4,    0.1,    0.1,   -0.2,    0.0,   -0.0,   -0.1,   -0.1,   -0.0,    0.1,   -0.0,    0.0,   -0.0,    0.2,   -0.0,   -0.2,    0.0,    0.1,   -0.1,   -0.0,   -0.6,   -1.5,   -1.3,   -2.4,  999.0,  999.0,  999.0,  999.0,   15.5,   14.8,   13.3,   11.4,  999.0,  999.0,  999.0,  999.0,  999.0,  -31.8,  999.0,  999.0,  999.0,  999.0,  999.0,  999.0,  999.0,  -25.7,  -25.9,  -25.9,  -26.1,  -27.4,  -26.0,  -25.3,  -23.0,  999.0,  999.0,  999.0,  999.0,  999.0,  999.0,  999.0,  999.0,  999.0,  999.0,  999.0,  999.0,  999.0,  999.0,  999.0,  999.0,  999.0
2015/02/23 18:20,  999.0,   -0.0,   -0.1,    0.1,    0.0,   -0.2,    0.0,  999.0,  999.0,    0.0,    0.1,    0.0,    0.1,   -0.0,   -0.2,   -0.2,   -0.3,   -0.1,   -0.1,    0.0,   -0.0,    0.1,    0.1,    0.1,    0.1,   -0.1,    0.1,   -0.1,   -0.0,    0.0,   -0.1,   -0.2,   -0.4,   -0.3,   -0.1,   -0.2,   -0.1,   -0.4,   -0.4,   -0.3,   -0.8,   -1.2,    0.2,   -3.0,   -3.7,   -3.3,   -3.7,   -4.1,   -4.3,   -6.0,   -3.0,  999.0,   -0.3,  999.0,  999.0,  999.0,   -1.0,   -1.2,  999.0,   -1.1,   -1.4,   -0.3,   -0.2,   -0.1,  999.0,  999.0,  999.0,  999.0,  999.0,  999.0,  999.0,  999.0,  999.0,  999.0,  999.0,  999.0,  999.0,  999.0,  999.0,  999.0
2015/02/23 18:30,  999.0,   -0.1,    0.4,    0.1,    0.2,    0.0,  999.0,  999.0,  999.0,   -0.8,   -0.6,   -0.3,   -0.5,   -0.3,    0.0,   -0.1,   -0.2,    0.0,    0.0,   -0.0,   -0.0,   -0.1,    0.0,    0.2,    0.1,   -0.1,    0.1,   -0.1,   -0.1,    0.1,    0.0,   -0.0,    0.0,    0.1,    0.0,   -0.0,   -0.0,   -0.0,    0.0,   -0.0,   -0.4,   -0.4,   -0.4,   -0.2,    0.0,    0.0,   -0.1,   -0.1,   -0.0,    0.1,   -0.3,    0.0,   -0.1,    0.1,    0.2,   -0.0,   -0.0,   -0.3,    0.2,   -0.1,   -0.3,   -1.4,   -0.6,   -1.0,   -0.5,  999.0,  999.0,  999.0,  999.0,  999.0,  999.0,  999.0,  999.0,  999.0,  999.0,  999.0,  999.0,  999.0,  999.0,  999.0
2015/02/23 18:40,  999.0,   -0.0,   -0.2,    0.2,   -0.2,    0.2,    0.1,   -0.2,   -0.3,   -0.5,   -0.1,    0.3,   -0.0,   -0.0,   -0.1,   -0.1,   -0.1,    0.2,    0.1,    0.1,    0.0,    0.1,   -0.0,   -0.0,   -0.1,    0.1,    0.0,   -0.1,    0.1,   -0.2,   -0.1,   -0.2,   -0.2,    0.1,   -0.2,    0.1,    0.2,    0.1,   -0.3,    0.1,   -0.7,   -0.2,   -0.1,   -0.1,   -0.0,   -0.0,    0.0,   -0.1,   -0.1,    0.0,    0.1,   -0.1,    0.1,    0.2,    0.1,   -0.0,   -0.0,   -0.0,    0.1,    0.1,   -0.1,    0.0,    0.2,   -0.3,   -0.0,   -0.3,   -0.2,  999.0,    0.1,  999.0,  999.0,  999.0,  999.0,  999.0,  999.0,  999.0,  999.0,  999.0,  999.0,  999.0
2015/02/23 18:50,  999.0,    0.4,   -0.3,    0.4,    0.9,    0.6,   -0.2,   -0.0,    0.0,   -0.2,   -0.3,   -0.5,   -0.3,   -0.2,   -0.1,   -0.0,   -0.0,   -0.1,    0.1,    0.0,    0.0,    0.0,    0.0,    0.1,   -0.1,   -0.2,   -0.2,   -0.2,   -0.2,   -0.0,    0.1,   -0.2,   -0.1,   -0.0,   -0.1,    0.1,    0.0,    0.1,    0.2,   -0.2,   -0.4,  999.0,    0.2,    0.0,   -0.0,    0.0,    0.1,    0.1,    0.0,   -0.1,   -0.0,   -0.0,   -0.1,    0.3,    0.2,    0.1,   -0.0,    0.1,   -0.2,    0.3,    0.2,    0.2,    0.0,   -0.1,   -0.1,  999.0,    0.2,  999.0,  999.0,  999.0,  999.0,  999.0,  999.0,   -0.4,  999.0,  999.0,  999.0,  999.0,  999.0,  999.0
2015/02/23 19:00,  999.0,    1.0,    0.7,    0.5,    0.0,    0.0,   -0.0,  999.0,  999.0,  999.0,  999.0,  999.0,   -1.1,   -0.9,   -0.5,   -0.1,   -0.0,    0.0,   -0.1,   -0.1,  999.0,  999.0,    0.0,   -0.2,  999.0,    0.0,    0.1,   -0.1,   -0.0,    0.1,    0.0,    0.1,    0.1,   -0.0,   -0.1,   -0.3,    0.0,    0.0,    0.1,    0.2,   -0.4,   -0.4,   -0.0,   -0.2,    0.1,    0.1,   -0.0,   -0.0,   -0.1,    0.2,    0.1,   -0.1,    0.1,    0.1,    0.0,   -0.1,   -0.0,   -0.0,    0.1,    0.3,    0.1,   -0.1,   -0.3,    0.0,    0.1,   -0.4,  999.0,   -0.0,    0.1,   -0.4,  999.0,   -0.1,    0.2,    0.0,    0.1,  999.0,  999.0,  999.0,  999.0,  999.0
2015/02/23 19:10,  999.0,   -0.2,    0.7,    0.4,    0.1,   -0.4,   -0.7,   -0.3,   -0.7,   -0.8,  999.0,  999.0,    0.0,    0.0,  999.0,  999.0,   -0.2,   -0.0,    0.1,    0.0,    0.0,   -0.1,   -0.0,    0.2,    0.1,    0.2,   -0.1,   -0.1,   -0.0,   -0.2,   -0.1,   -0.2,   -0.2,    0.1,   -0.1,    0.1,    0.1,   -0.0,    0.1,   -0.2,   -0.5,   -0.3,    0.1,    0.1,   -0.1,   -0.0,    0.1,    0.1,   -0.0,   -0.0,   -0.2,   -0.1,   -0.1,    0.1,    0.1,   -0.5,    0.1,    0.1,   -0.1,   -0.1,   -0.3,    0.2,    0.2,    0.6,   -0.1,   -0.2,    0.1,   -0.4,   -0.1,  999.0,    0.0,    0.0,  999.0,   -0.0,    0.1,  999.0,  999.0,  999.0,  999.0,  999.0
2015/02/23 19:20,  999.0,    0.1,   -0.1,    0.0,    0.1,    0.3,   -0.2,   -0.1,   -0.1,   -0.1,   -0.3,   -0.3,    0.1,   -0.0,   -0.3,   -0.1,   -0.1,   -0.1,   -0.0,    0.0,   -0.1,    0.1,    0.1,    0.2,    0.1,    0.0,   -0.0,    0.0,   -0.3,   -0.1,   -0.0,    0.1,    0.0,   -0.1,   -0.3,   -0.2,   -0.0,   -0.0,   -0.0,    0.1,   -0.2,   -0.1,   -0.0,   -0.1,   -0.3,   -0.2,   -0.0,   -0.1,    0.0,   -0.0,   -0.0,   -0.1,   -0.1,    0.1,    0.1,    0.1,    0.0,   -0.1,    0.3,   -0.2,   -0.0,    0.2,   -0.1,    0.1,  999.0,   -0.1,   -0.3,    0.2,    0.0,   -0.1,  999.0,  999.0,  999.0,    0.2,  999.0,  999.0,  999.0,  999.0,  999.0,  999.0
2015/02/23 19:30,  999.0,   -0.3,    0.1,    0.2,  999.0,    1.2,  999.0,   -0.6,   -0.2,  999.0,  999.0,   -0.1,   -0.3,  999.0,   -0.3,    0.1,  999.0,  999.0,   -0.0,  999.0,  999.0,   -0.0,    0.1,    0.0,   -0.1,   -0.0,    0.2,    0.1,    0.1,    0.1,   -0.2,    0.1,   -0.0,    0.1,    0.2,   -0.0,   -0.1,    0.1,    0.1,    0.1,   -0.2,   -0.1,   -0.1,   -0.0,    0.1,    0.1,   -0.2,   -0.0,    0.1,    0.1,    0.1,   -0.0,    0.2,    0.2,    0.1,   -0.0,   -0.1,    0.2,    0.0,   -0.2,   -0.2,   -0.1,   -0.1,   -0.2,   -0.1,    0.1,  999.0,    0.3,   -0.2,    0.1,  999.0,  999.0,  999.0,  999.0,  999.0,  999.0,  999.0,  999.0,  999.0,  999.0
2015/02/23 19:40,  999.0,  999.0,   -0.1,    0.1,    0.1,    0.0,    0.0,   -0.1,    0.1,    0.1,   -0.0,    0.0,    0.0,    2.3,    1.3,   -0.0,    0.0,   -0.0,   -0.0,    0.0,   -0.1,   -0.0,   -0.0,    0.0,   -0.1,    0.0,    0.0,   -0.0,    0.0,   -0.0,    0.0,    0.0,    0.0,    0.0,   -0.0,    0.0,    0.1,    0.0,    0.0,    0.0,   -0.1,    0.0,    0.1,    0.1,    0.1,    0.0,   -0.0,   -0.1,   -0.1,    0.1,    0.1,   -0.0,    0.0,    0.1,    0.0,    0.2,    0.0,    0.0,    0.1,   -0.1,   -0.2,   -0.0,    0.1,    0.1,   -0.1,    0.1,    0.0,   -0.0,    0.2,  999.0,    0.0,  999.0,   -0.8,   -0.1,  999.0,  999.0,  999.0,  999.0,  999.0,  999.0
2015/02/23 19:50,  999.0,  999.0,   -0.1,   -0.4,   -0.2,   -0.7,   -0.9,   -2.1,   -2.3,   -3.0,   -3.6,   -4.4,   -5.3,   -6.1,   -4.4,   -5.7,    0.5,    0.4,    0.5,   -0.4,   -0.1,    2.8,    0.3,  -18.2,  -11.3,   -6.3,   -3.3,   -1.6,    0.2,    0.1,    0.0,    0.0,   -0.0,    0.1,    0.0,    0.1,    0.1,    0.0,   -0.2,   -0.0,   -0.1,   -0.1,   -0.1,    0.1,   -0.0,   -0.2,   -0.1,    0.1,    0.0,   -0.1,    0.1,    0.1,   -0.0,    0.0,   -0.0,    0.0,   -0.0,   -0.2,   -0.0,   -0.1,   -0.1,   -0.1,   -0.2,    0.0,   -0.1,   -0.3,    0.2,    0.3,    0.0,    0.1,   -0.1,  999.0,    0.0,   -0.0,  999.0,  999.0,  999.0,  999.0,  999.0,  999.0
2015/02/23 20:00,  999.0,  999.0,    0.0,    0.2,   -0.0,   -0.4,    2.1,    3.0,    2.4,    1.8,   -0.1,   -0.1,   -0.1,   -1.3,   -5.0,   -9.0,  -12.1,  -10.3,   -8.9,    0.0,   -0.1,   -0.4,   -0.1,    0.1,    0.1,    0.3,   -0.0,    0.2,    0.3,    0.1,    0.1,   -1.6,   -1.1,   -0.5,   -0.0,    0.0,   -0.1,   -0.1,   -0.2,   -0.0,   -0.0,    0.1,  999.0,   -0.0,   -0.0,   -0.2,  999.0,    0.1,   -0.0,    0.0,    0.0,    0.3,   -0.2,   -0.3,    0.6,   -0.0,    0.2,   -0.1,    0.1,    0.0,   -0.3,    0.2,    0.3,    0.1,    0.1,   -0.0,    0.1,  999.0,   -0.0,  999.0,    0.2,    0.2,   -0.0,  999.0,    0.3,  999.0,  999.0,  999.0,  999.0,  999.0
2015/02/23 20:10,  999.0,    0.3,    0.2,    0.4,    0.2,    0.0,   -0.1,  999.0,    0.3,   -0.1,    4.7,    6.1,    5.8,    5.3,    3.5,    3.5,    3.7,   -0.2,    2.6,   -3.5,    0.3,    2.3,    1.8,   -0.8,   -0.2,   -0.0,    0.1,    4.5,    0.0,    0.0,   -0.1,   -0.1,   -0.2,   -0.1,    0.0,    0.1,   -0.1,    0.1,    0.0,    0.1,   -0.2,   -0.2,    0.1,   -0.0,   -0.1,    0.1,    0.1,   -0.0,    0.1,   -0.0,   -0.3,   -0.2,   -0.1,   -0.1,   -0.2,    0.2,   -0.0,   -0.3,   -0.1,   -0.3,   -0.1,   -0.1,    0.1,  999.0,  999.0,   -0.5,  999.0,   -0.4,  999.0,  999.0,   -0.0,    0.1,  999.0,   -0.0,  999.0,  999.0,  999.0,  999.0,  999.0,  999.0
2015/02/23 20:20,  999.0,   -0.0,   -0.1,   -0.1,   -0.0,    0.3,   -0.1,   -0.2,    0.1,    0.9,   -0.3,   -0.1,    1.3,    0.4,    0.0,    1.1,    0.2,   -0.3,    1.3,   -0.7,    0.2,   -0.8,   -0.8,   -0.7,   -0.2,    0.0,  999.0,    0.3,    0.2,   -0.1,   -0.1,   -0.2,   -0.0,    0.1,   -0.0,   -0.0,    0.1,   -0.2,    0.1,    0.0,    0.0,   -0.2,   -0.1,   -0.2,   -0.1,   -0.0,   -0.2,    0.2,    0.1,   -0.0,    0.0,    0.1,   -0.3,   -0.0,   -0.2,   -0.2,   -0.2,   -0.2,   -0.1,   -0.1,    0.3,    0.4,    0.2,    0.1,    0.3,  999.0,   -0.2,    0.1,    0.1,  999.0,    0.0,   -0.2,   -0.1,  999.0,  999.0,  999.0,  999.0,  999.0,  999.0,  999.0
2015/02/23 20:30,  999.0,    0.1,    0.1,   -0.5,   -0.4,    0.1,    0.0,   -0.1,   -0.1,    0.9,    1.3,    1.3,    1.3,    1.0,   -0.4,   -0.7,   -0.7,   -0.9,   -0.6,   -0.4,   -0.6,   -1.0,   -1.0,   -0.1,   -0.5,    0.3,   -0.8,   -0.0,   -0.2,    0.0,    0.0,   -0.2,   -0.1,    0.2,    0.1,   -0.1,    0.1,   -0.1,    0.5,    0.2,    0.0,   -0.1,    0.0,   -0.0,    0.1,   -0.3,   -0.0,    0.1,    0.1,    0.1,    0.1,   -0.1,   -0.2,   -0.1,   -0.3,   -0.2,   -0.0,   -0.0,    0.1,   -0.1,    0.2,   -0.0,   -0.1,    0.1,  999.0,  999.0,    0.2,    0.2,    0.1,    0.1,    0.0,    0.1,    0.1,   -0.0,    0.2,  999.0,  999.0,  999.0,  999.0,  999.0
2015/02/23 20:40,  999.0,   -0.3,    0.1,    0.4,    0.4,    0.6,    0.3,   -0.4,   -0.4,    0.7,    0.4,    0.2,   -0.0,    0.6,    0.5,    0.8,  999.0,   -0.7,   -1.9,   -2.2,   -2.7,    0.0,   -5.4,   -2.1,   -0.0,    0.3,   -1.0,   -1.0,   -0.8,   -1.1,   -0.4,   -0.3,    0.0,   -0.2,   -0.1,   -0.1,   -0.1,   -0.1,  999.0,    0.1,   -0.2,   -0.3,   -0.1,    0.2,    0.0,    0.1,    0.1,    0.0,    0.2,   -0.1,  999.0,   -0.1,    0.2,   -0.1,    0.1,   -0.2,   -0.2,    0.1,   -0.0,    0.0,   -0.2,    0.3,    0.1,   -0.1,   -0.2,   -0.2,   -0.2,   -0.1,  999.0,  999.0,   -0.1,   -0.2,   -0.1,    0.1,    0.3,  999.0,  999.0,  999.0,  999.0,  999.0
2015/02/23 20:50,  999.0,   -0.2,    0.3,    0.1,    0.5,  999.0,    0.9,   -1.1,   -1.9,  999.0,   -1.6,   -1.5,   -2.0,  999.0,   -3.3,   -3.8,   -3.7,  999.0,  999.0,  999.0,  999.0,  999.0,  999.0,  999.0,  999.0,  999.0,  999.0,  999.0,  999.0,  999.0,  999.0,  999.0,  999.0,   -1.8,  999.0,    0.3,   -0.2,  999.0,   -0.1,   -0.0,   -0.0,    0.1,    0.3,    0.1,    0.3,    0.2,    0.0,    0.0,    0.0,    0.1,    0.1,   -0.0,   -0.1,   -0.2,    0.1,    0.1,    0.0,    0.3,   -0.2,   -0.2,  999.0,   -0.1,    0.1,  999.0,    0.1,    0.4,    0.3,  999.0,    0.0,    0.1,   -0.1,    0.1,   -0.1,    0.2,    0.2,  999.0,  999.0,  999.0,  999.0,  999.0
2015/02/23 21:00,  999.0,    0.4,    0.2,  999.0,  999.0,  999.0,  999.0,  999.0,  999.0,    0.9,    0.4,    1.1,    1.8,    4.0,    1.0,    2.8,   -0.1,  999.0,   -0.1,  999.0,  999.0,  999.0,    1.2,   -0.3,    0.3,  999.0,  999.0,   -7.9,  999.0,  999.0,  999.0,  999.0,  999.0,    1.0,    0.1,    0.2,    0.1,    0.1,    0.2,  999.0,  999.0,   -0.6,   -0.0,   -0.0,  999.0,  999.0,    0.2,    0.2,    0.3,  999.0,    0.0,    0.0,    0.0,   -0.5,   -0.1,   -0.2,   -0.1,    0.0,    0.0,    0.0,  999.0,    0.0,   -0.1,   -0.0,   -0.3,   -0.1,  999.0,   -0.1,  999.0,  999.0,    0.2,   -0.1,    0.0,    0.1,   -0.2,  999.0,  999.0,  999.0,  999.0,  999.0
2015/02/23 21:10,  999.0,    0.1,    0.3,   -0.0,    0.1,    0.0,  999.0,  999.0,  999.0,  999.0,  999.0,  999.0,  999.0,  999.0,  999.0,  999.0,  999.0,  999.0,   -0.6,    0.0,  999.0,  999.0,  999.0,  999.0,  999.0,  999.0,  999.0,  999.0,  999.0,  999.0,  999.0,  999.0,  999.0,  999.0,    0.1,    0.2,  999.0,  999.0,  999.0,  999.0,  999.0,   -0.3,  999.0,    0.1,    0.1,    0.1,   -0.2,  999.0,   -0.0,  999.0,    0.1,   -0.1,   -0.0,   -0.0,   -0.2,   -0.5,   -0.2,    0.3,   -0.0,   -0.0,    0.1,   -0.0,   -0.3,    0.4,    0.2,  999.0,   -0.1,  999.0,   -0.2,   -0.3,   -0.2,   -0.0,    0.2,    0.1,   -0.0,  999.0,  999.0,  999.0,  999.0,  999.0
2015/02/23 21:20,  999.0,   -0.3,    0.8,    1.1,    0.3,   -0.1,   -0.3,   -0.1,    0.1,    0.4,    0.8,    0.2,    0.1,    0.3,   -0.2,    0.1,   -0.6,    0.2,   -0.4,   -0.1,    0.1,   -0.4,   -0.8,    0.5,   -0.4,    0.7,  999.0,  999.0,  999.0,  999.0,  999.0,  999.0,  999.0,   -0.2,    0.2,    0.4,  999.0,  999.0,    0.0,    0.1,   -0.4,   -0.6,   -0.3,   -0.4,    0.1,   -0.1,   -0.2,   -0.0,   -0.1,  999.0,   -0.2,   -0.2,    0.2,    0.1,   -0.3,    0.0,    0.1,    0.2,    0.1,   -0.1,   -0.1,   -0.1,  999.0,    0.5,    0.0,    0.3,    0.1,    0.2,    0.2,   -0.0,    0.2,   -0.1,    0.1,    0.1,    0.1,  999.0,  999.0,  999.0,  999.0,  999.0
2015/02/23 21:30,  999.0,    0.5,    0.4,   -0.1,    0.0,    1.5,   -0.5,   -0.3,   -0.6,    0.3,    0.3,    1.3,   -0.2,  999.0,    2.8,    0.9,    0.5,    0.3,    0.0,   -0.5,   -0.5,   -0.0,    0.9,    0.0,   -0.7,    1.4,  999.0,  999.0,  999.0,  999.0,  999.0,  999.0,   -0.1,  999.0,   -0.1,   -0.1,  999.0,   -0.2,    0.1,   -0.2,   -0.2,   -0.6,    0.0,   -0.0,    0.1,   -0.1,   -0.0,    0.1,   -0.0,   -0.2,    0.1,   -0.3,    0.0,   -0.1,   -0.2,   -0.2,    0.0,    0.0,   -0.1,   -0.1,   -0.3,    0.1,   -0.1,    0.2,    0.3,    0.1,    0.2,    0.3,    0.2,    0.2,   -0.1,   -0.3,   -0.2,   -0.1,    0.1,  999.0,  999.0,  999.0,  999.0,  999.0
2015/02/23 21:40,  999.0,  999.0,   -0.2,    0.3,    1.1,    1.7,    0.2,    0.2,    0.2,   -0.2,   -0.8,   -1.1,    0.0,   -1.1,   -1.4,   -1.1,   -0.5,   -0.3,   -0.3,   -0.8,   -1.2,   -1.8,   -2.2,   -0.5,    0.3,  999.0,  999.0,  999.0,  999.0,  999.0,    0.1,    0.4,   -0.4,   -0.2,   -0.4,    0.4,   -0.1,   -0.4,    0.0,   -0.1,   -0.2,   -0.6,   -0.3,   -0.4,   -0.3,   -0.3,   -0.1,   -0.1,   -0.1,   -0.1,   -0.1,    0.1,    0.0,    0.3,    0.0,   -0.0,    0.1,   -0.3,    0.1,    0.1,   -0.0,    0.0,    0.0,    0.0,   -0.1,    0.4,    0.1,   -0.1,   -0.1,  999.0,  999.0,    0.1,   -0.0,   -0.1,   -0.0,  999.0,  999.0,  999.0,  999.0,  999.0
2015/02/23 21:50,  999.0,    0.5,   -0.0,    0.1,    0.1,    0.0,    0.0,    0.2,    0.4,   -0.0,    0.1,    0.3,    0.2,   -0.1,   -0.1,   -0.4,   -0.3,    0.0,    0.5,   -0.9,   -0.7,    0.1,  999.0,  999.0,  999.0,   -2.2,  999.0,  999.0,  999.0,  999.0,   -0.0,   -0.4,    0.1,   -0.1,    0.1,   -0.0,    0.5,   -0.0,   -0.0,  999.0,   -0.4,   -0.3,    0.0,   -0.2,  999.0,   -0.0,    0.0,   -0.1,   -0.1,   -0.1,  999.0,   -0.1,    0.2,  999.0,   -0.1,   -0.2,    0.1,  999.0,    0.0,   -0.1,    0.1,    0.0,   -0.2,    0.1,   -0.0,  999.0,    0.2,    0.0,   -0.2,  999.0,   -0.0,   -0.1,   -0.3,    0.1,    0.0,  999.0,  999.0,  999.0,  999.0,  999.0
2015/02/23 22:00,  999.0,  999.0,   -0.7,    1.0,   -0.7,    0.0,   -0.4,   -1.1,   -1.0,   -0.7,   -0.2,    0.5,    0.1,   -0.0,   -0.1,   -0.5,   -0.0,   -0.1,    0.1,  999.0,   -0.2,  999.0,  999.0,   -0.3,  999.0,  999.0,  999.0,  999.0,  999.0,  999.0,   -0.0,    0.1,   -0.0,    0.1,   -0.1,   -0.1,    0.4,    0.1,   -0.1,  999.0,   -0.3,  999.0,    0.3,    0.3,  999.0,    0.1,    0.1,    0.4,    0.3,   -0.2,   -0.2,   -0.3,   -0.5,   -0.3,   -0.1,   -0.1,   -0.1,    0.5,    0.0,   -0.2,    0.2,    0.1,   -0.2,   -0.2,   -0.1,  999.0,    0.2,    0.0,    0.0,   -0.1,   -0.0,    0.2,   -0.0,    0.1,    0.2,  999.0,  999.0,  999.0,  999.0,  999.0
2015/02/23 22:10,  999.0,   -0.7,    0.2,    0.4,    0.7,    0.2,   -0.2,    0.3,   -0.1,   -0.9,   -0.5,   -0.5,   -0.2,   -0.2,    0.2,    0.2,   -0.0,   -0.1,   -0.3,    0.1,   -0.7,  999.0,  999.0,  999.0,  999.0,  999.0,  999.0,  999.0,   -0.0,    0.0,   -0.1,   -0.3,   -0.1,   -0.0,  999.0,    0.3,   -0.3,    0.3,   -0.1,   -0.2,   -0.2,   -0.3,    0.1,   -0.2,   -0.0,   -0.2,   -0.1,  999.0,    0.0,  999.0,   -0.3,  999.0,  999.0,   -0.4,   -0.8,   -1.2,    0.1,    0.0,   -0.3,  999.0,   -0.4,  999.0,  999.0,   -0.0,    0.2,  999.0,    0.3,  999.0,   -0.1,    0.0,    0.0,    0.1,    0.1,    0.1,    0.1,  999.0,  999.0,  999.0,  999.0,  999.0
2015/02/23 22:20,  999.0,    0.0,    0.2,    1.1,    0.1,    0.1,   -0.2,   -0.0,    0.1,    0.2,    0.3,    0.0,   -0.2,    0.1,   -0.1,   -0.3,   -0.0,   -0.1,   -0.1,   -0.2,   -0.0,    0.6,  999.0,   -0.6,   -0.8,  999.0,   -0.8,   -0.9,  999.0,  999.0,  999.0,  999.0,   -0.2,   -0.5,    0.4,    0.4,   -0.0,   -0.1,   -0.1,   -0.3,   -0.7,   -0.7,   -0.6,    0.1,    0.0,    0.5,   -0.1,    0.1,    0.2,    0.4,    0.1,  999.0,   -0.0,    0.1,    0.5,    0.1,   -0.1,   -0.3,   -0.6,   -0.2,   -0.4,    0.2,   -0.1,    0.1,   -0.2,  999.0,   -0.3,   -0.1,   -0.1,    0.1,    0.2,   -0.1,   -0.1,    0.1,   -0.1,  999.0,  999.0,  999.0,  999.0,  999.0
2015/02/23 22:30,  999.0,    0.3,    0.5,    0.6,    0.2,    0.0,    0.4,    0.5,    0.5,    0.2,    0.2,   -0.0,   -0.1,   -0.0,    0.0,   -0.0,   -0.0,    0.1,   -0.1,   -0.0,   -0.2,    0.9,  999.0,    0.9,  999.0,  999.0,  999.0,  999.0,  999.0,  999.0,    0.2,    0.3,  999.0,   -0.0,  999.0,   -0.2,   -0.2,    0.0,   -0.2,   -0.1,   -0.3,   -0.1,   -0.0,    0.2,   -0.1,   -0.0,    0.0,   -0.2,    0.3,    0.2,    0.0,    0.5,   -0.2,    0.1,   -0.3,    0.2,  999.0,    0.3,    0.0,  999.0,  999.0,    0.1,    0.1,   -0.0,   -0.0,    0.2,    0.4,    0.4,    0.2,    0.2,   -0.1,    0.3,    0.0,   -0.1,  999.0,  999.0,  999.0,  999.0,  999.0,  999.0
2015/02/23 22:40,  999.0,  999.0,    0.2,    0.1,    0.3,    0.2,    0.1,    0.0,   -0.0,   -0.1,   -0.2,   -0.1,    0.2,    0.2,    0.3,   -0.0,   -0.1,    0.1,    0.1,   -0.2,   -0.0,    0.2,    1.2,  999.0,   -2.4,  999.0,  999.0,   -1.5,  999.0,  999.0,   -0.5,    0.0,  999.0,  999.0,  999.0,  999.0,  999.0,  999.0,    0.2,  999.0,   -0.1,   -0.1,   -0.2,    0.0,   -0.2,    0.0,  999.0,    0.2,  999.0,    0.1,    0.1,  999.0,    0.2,   -0.1,    0.2,    0.7,    0.6,    0.3,    0.1,    0.1,   -0.2,  999.0,   -0.4,   -0.1,   -0.1,   -0.0,  999.0,  999.0,  999.0,  999.0,  999.0,  999.0,  999.0,  999.0,  999.0,  999.0,  999.0,  999.0,  999.0,  999.0
2015/02/23 22:50,  999.0,    0.2,   -0.4,    0.1,    0.3,    0.2,    0.4,   -0.1,   -0.8,   -1.1,   -0.1,    0.1,    0.2,    0.1,   -0.0,   -0.0,    0.0,   -0.1,    0.0,    0.1,    0.9,  999.0,  999.0,  999.0,  999.0,  999.0,  999.0,  999.0,  999.0,  999.0,  999.0,  999.0,  999.0,  999.0,   -0.2,    0.0,   -0.2,    0.2,  999.0,  999.0,  999.0,  999.0,  999.0,    0.1,    0.3,  999.0,  999.0,   -0.1,    0.2,  999.0,    0.1,  999.0,   -0.2,    0.0,   -0.1,  999.0,    0.1,    0.0,   -0.4,  999.0,   -0.1,   -0.1,  999.0,  999.0,  999.0,  999.0,   -0.3,   -0.2,   -0.1,  999.0,  999.0,  999.0,  999.0,  999.0,  999.0,  999.0,  999.0,  999.0,  999.0,  999.0
2015/02/23 23:00,  999.0,   -0.1,   -0.8,   -0.5,   -0.4,   -0.1,   -0.2,   -0.5,   -0.1,   -0.4,   -0.1,    0.4,    1.2,   -0.2,    0.2,  999.0,   -0.0,    0.1,   -0.0,   -0.0,   -0.0,  999.0,  999.0,  999.0,  999.0,  999.0,  999.0,  999.0,  999.0,   -0.0,    0.0,   -0.2,   -0.1,   -0.0,   -0.3,    0.0,   -0.1,   -0.2,  999.0,    0.0,  999.0,    0.0,   -0.1,   -0.1,   -0.5,   -0.1,   -0.0,   -0.3,   -0.1,    0.2,    0.0,    0.2,   -0.0,    0.2,    0.2,   -0.0,    0.1,   -0.1,    0.2,    0.0,   -0.3,   -0.1,   -0.0,    0.1,   -0.2,   -0.2,    0.0,   -0.1,    0.1,    0.1,  999.0,  999.0,  999.0,  999.0,  999.0,  999.0,  999.0,  999.0,  999.0,  999.0
2015/02/23 23:10,  999.0,   -0.1,   -0.1,   -1.0,   -0.4,   -0.8,   -0.4,   -0.2,   -0.2,    0.1,   -0.7,   -0.4,   -0.0,   -0.1,    0.2,    0.1,   -0.1,   -0.0,    0.2,    0.4,  999.0,  999.0,  999.0,  999.0,  999.0,  999.0,  999.0,    0.6,    0.6,    0.3,    0.3,    0.2,   -0.1,   -0.1,    0.1,  999.0,   -0.2,   -0.3,   -0.4,   -0.3,   -0.0,   -0.3,   -0.2,   -0.0,   -0.0,   -0.0,   -0.1,   -0.4,    0.1,    0.3,   -0.1,   -0.2,    0.1,    0.1,    0.3,   -0.2,    0.0,    0.1,    0.2,   -0.1,   -0.0,   -0.1,    0.0,   -0.1,   -0.0,   -0.0,  999.0,    0.2,    0.2,  999.0,  999.0,  999.0,    0.1,  999.0,  999.0,  999.0,  999.0,  999.0,  999.0,  999.0
2015/02/23 23:20,  999.0,   -0.0,    0.2,    0.5,    0.0,   -0.5,    1.4,   -0.4,   -0.5,   -1.4,   -1.6,   -0.8,   -0.3,   -0.2,   -0.2,   -0.1,   -0.0,    0.1,    0.2,    0.1,   -0.0,    0.4,    2.0,  999.0,    0.5,  999.0,  999.0,  999.0,  999.0,    1.0,   -0.1,   -0.1,   -0.2,    0.5,    0.5,    0.1,  999.0,  999.0,   -0.4,  999.0,   -0.1,   -0.3,   -0.4,   -0.1,   -0.3,    0.1,   -0.1,   -0.0,  999.0,    0.0,   -0.2,   -0.1,    0.0,   -0.1,    0.0,    0.3,    0.0,   -0.1,    0.1,   -0.0,    0.1,   -0.2,   -0.2,    0.0,    0.0,    0.2,    0.1,   -0.1,    0.1,    0.1,    0.3,   -0.0,  999.0,    0.1,    0.3,  999.0,  999.0,  999.0,  999.0,  999.0
2015/02/23 23:30,  999.0,   -0.3,   -1.1,    0.0,    0.9,  999.0,   -0.9,   -0.5,   -1.8,   -1.7,   -1.6,    0.6,    0.5,   -0.3,   -0.3,    0.0,   -0.1,   -0.1,    0.1,    0.0,   -0.2,    0.2,    0.7,  999.0,  999.0,  999.0,    4.1,  999.0,  999.0,    0.5,   -0.0,   -0.3,   -0.1,   -0.1,   -0.1,    0.1,   -0.3,  999.0,   -0.1,   -0.0,   -0.2,    0.1,    0.0,   -0.1,    0.2,    0.1,    0.3,    0.3,   -0.2,  999.0,    0.1,   -0.2,   -0.2,    0.2,    0.1,    0.1,    0.0,    0.1,    0.2,   -0.2,   -0.2,   -0.1,   -0.2,   -0.1,   -0.3,    0.1,   -0.1,    0.0,  999.0,   -0.4,   -0.0,   -0.0,  999.0,   -0.2,  999.0,  999.0,  999.0,  999.0,  999.0,  999.0
2015/02/23 23:40,  999.0,   -0.2,   -0.6,    0.1,    0.1,   -0.1,   -0.0,    0.0,   -0.2,   -0.2,   -0.1,    0.4,    0.4,    0.3,    0.1,    0.1,    0.0,    0.1,    0.1,    0.1,    0.1,    0.1,    0.3,    0.9,  999.0,  999.0,  999.0,  999.0,    4.8,   -0.4,    0.9,    0.0,    0.4,    0.1,  999.0,   -0.3,  999.0,   -0.0,    0.2,   -0.0,   -0.2,   -0.0,    0.4,   -0.3,   -0.2,   -0.0,    0.0,   -0.3,   -0.2,   -0.2,    0.2,  999.0,    0.3,   -0.2,   -0.2,    0.1,   -0.2,   -0.1,    0.1,    0.0,    0.4,    0.0,   -0.2,   -0.1,    0.0,    0.0,    0.1,    0.2,    0.4,   -0.1,   -0.1,  999.0,    0.4,    0.6,   -0.1,  999.0,  999.0,  999.0,  999.0,  999.0
2015/02/23 23:50,  999.0,    0.1,   -0.1,   -0.1,   -0.1,   -0.0,   -0.1,   -0.0,   -0.1,    0.0,    0.0,    0.0,   -0.0,   -0.0,   -0.2,   -0.3,   -0.3,   -0.3,   -0.1,   -0.0,   -0.1,   -0.1,    0.6,    1.3,    1.1,  999.0,   -0.2,    2.6,  999.0,    0.6,    0.1,   -0.1,   -0.2,   -0.3,    0.1,   -0.1,   -0.4,   -0.4,   -0.1,    0.2,   -0.0,   -0.1,    0.2,    0.0,    0.1,   -0.1,   -0.1,    0.1,   -0.0,    0.0,  999.0,    0.2,   -0.2,   -0.0,   -0.2,   -0.1,   -0.1,   -0.1,    0.1,    0.0,   -0.2,    0.0,   -0.1,   -0.2,    0.2,    0.1,    0.2,   -0.1,   -0.1,  999.0,    0.2,   -0.0,    0.1,   -0.2,    0.1,  999.0,  999.0,  999.0,  999.0,  999.0
